| time (UTC) | temp F | wind direction | speed MPH | gust MPH | rain 1hr in | rain 24hr in | rain mn in | humidity % | barometer mb |
| 20260506223945 | 83 | 236 | 6.0 | 12.0 | 0.00 | 0.00 | 0.00 | 38 | 1010.1 |
| 20260506223845 | 83 | 232 | 4.0 | 12.0 | 0.00 | 0.00 | 0.00 | 38 | 1010.1 |
| 20260506223744 | 83 | 209 | 3.0 | 10.0 | 0.00 | 0.00 | 0.00 | 38 | 1010.1 |
| 20260506223643 | 83 | 286 | 3.0 | 10.0 | 0.00 | 0.00 | 0.00 | 38 | 1010.1 |
| 20260506223542 | 83 | 219 | 3.0 | 10.0 | 0.00 | 0.00 | 0.00 | 38 | 1010.1 |
| 20260506223442 | 83 | 184 | 4.0 | 10.0 | 0.00 | 0.00 | 0.00 | 38 | 1010.1 |
| 20260506223341 | 83 | 204 | 4.0 | 10.0 | 0.00 | 0.00 | 0.00 | 38 | 1010.1 |
| 20260506223243 | 83 | 259 | 4.0 | 10.0 | 0.00 | 0.00 | 0.00 | 38 | 1010.2 |
| 20260506223149 | 83 | 253 | 4.0 | 11.0 | 0.00 | 0.00 | 0.00 | 37 | 1010.2 |
| 20260506223133 | 83 | 221 | 5.0 | 11.0 | 0.00 | 0.00 | 0.00 | 38 | 1010.1 |
| 20260506223121 | 83 | 335 | 5.0 | 11.0 | 0.00 | 0.00 | 0.00 | 37 | 1010.1 |
| 20260506223110 | 83 | 211 | 4.0 | 11.0 | 0.00 | 0.00 | 0.00 | 38 | 1010.2 |
| 20260506223055 | 83 | 210 | 3.0 | 11.0 | 0.00 | 0.00 | 0.00 | 38 | 1010.1 |
| 20260506222434 | 83 | 192 | 4.0 | 11.0 | 0.00 | 0.00 | 0.00 | 38 | 1010.2 |
| 20260506222334 | 83 | 157 | 5.0 | 12.0 | 0.00 | 0.00 | 0.00 | 38 | 1010.2 |
| 20260506222237 | 83 | 209 | 4.0 | 12.0 | 0.00 | 0.00 | 0.00 | 38 | 1010.2 |
| 20260506222132 | 83 | 175 | 4.0 | 12.0 | 0.00 | 0.00 | 0.00 | 37 | 1010.2 |
| 20260506222032 | 83 | 174 | 4.0 | 12.0 | 0.00 | 0.00 | 0.00 | 37 | 1010.2 |
| 20260506221929 | 83 | 184 | 3.0 | 12.0 | 0.00 | 0.00 | 0.00 | 37 | 1010.3 |
| 20260506221831 | 83 | 148 | 4.0 | 12.0 | 0.00 | 0.00 | 0.00 | 37 | 1010.2 |
| 20260506221734 | 83 | 208 | 4.0 | 12.0 | 0.00 | 0.00 | 0.00 | 36 | 1010.3 |
| 20260506221629 | 83 | 203 | 4.0 | 12.0 | 0.00 | 0.00 | 0.00 | 37 | 1010.3 |
| 20260506221528 | 84 | 182 | 4.0 | 12.0 | 0.00 | 0.00 | 0.00 | 37 | 1010.3 |
| 20260506221430 | 84 | 183 | 3.0 | 12.0 | 0.00 | 0.00 | 0.00 | 37 | 1010.3 |
| 20260506221401 | 84 | 194 | 3.0 | 12.0 | 0.00 | 0.00 | 0.00 | 37 | 1010.4 |
| 20260506221350 | 84 | 174 | 4.0 | 12.0 | 0.00 | 0.00 | 0.00 | 37 | 1010.3 |
| 20260506221326 | 84 | 188 | 4.0 | 12.0 | 0.00 | 0.00 | 0.00 | 37 | 1010.3 |
| 20260506221312 | 84 | 165 | 5.0 | 12.0 | 0.00 | 0.00 | 0.00 | 37 | 1010.4 |
| 20260506220732 | 84 | 186 | 4.0 | 12.0 | 0.00 | 0.00 | 0.00 | 37 | 1010.4 |
| 20260506220659 | 84 | 146 | 5.0 | 13.0 | 0.00 | 0.00 | 0.00 | 36 | 1010.4 |
| 20260506220644 | 84 | 262 | 6.0 | 13.0 | 0.00 | 0.00 | 0.00 | 36 | 1010.4 |
| 20260506220633 | 84 | 134 | 5.0 | 13.0 | 0.00 | 0.00 | 0.00 | 35 | 1010.3 |
| 20260506220620 | 84 | 141 | 4.0 | 13.0 | 0.00 | 0.00 | 0.00 | 36 | 1010.3 |
| 20260506220026 | 84 | 198 | 4.0 | 13.0 | 0.00 | 0.00 | 0.00 | 36 | 1010.4 |
| 20260506220003 | 84 | 234 | 7.0 | 13.0 | 0.00 | 0.00 | 0.00 | 36 | 1010.5 |
| 20260506215949 | 84 | 217 | 6.0 | 13.0 | 0.00 | 0.00 | 0.00 | 36 | 1010.4 |
| 20260506215621 | 84 | 142 | 3.0 | 13.0 | 0.00 | 0.00 | 0.00 | 37 | 1010.4 |
| 20260506215521 | 84 | 210 | 4.0 | 13.0 | 0.00 | 0.00 | 0.00 | 37 | 1010.5 |
| 20260506215422 | 83 | 240 | 4.0 | 13.0 | 0.00 | 0.00 | 0.00 | 36 | 1010.4 |
| 20260506215406 | 83 | 160 | 3.0 | 13.0 | 0.00 | 0.00 | 0.00 | 36 | 1010.4 |
| 20260506215355 | 83 | 236 | 4.0 | 13.0 | 0.00 | 0.00 | 0.00 | 37 | 1010.5 |
| 20260506215017 | 83 | 192 | 7.0 | 13.0 | 0.00 | 0.00 | 0.00 | 35 | 1010.6 |
| 20260506214956 | 83 | 150 | 6.0 | 13.0 | 0.00 | 0.00 | 0.00 | 35 | 1010.5 |
| 20260506214945 | 83 | 189 | 4.0 | 13.0 | 0.00 | 0.00 | 0.00 | 36 | 1010.5 |
| 20260506214615 | 83 | 261 | 3.0 | 13.0 | 0.00 | 0.00 | 0.00 | 35 | 1010.5 |
| 20260506214514 | 83 | 196 | 4.0 | 13.0 | 0.00 | 0.00 | 0.00 | 35 | 1010.6 |
| 20260506214414 | 83 | 243 | 4.0 | 13.0 | 0.00 | 0.00 | 0.00 | 36 | 1010.6 |
| 20260506214313 | 83 | 213 | 4.0 | 13.0 | 0.00 | 0.00 | 0.00 | 36 | 1010.7 |
| 20260506214223 | 83 | 207 | 5.0 | 13.0 | 0.00 | 0.00 | 0.00 | 37 | 1010.7 |
| 20260506214111 | 83 | 244 | 7.0 | 13.0 | 0.00 | 0.00 | 0.00 | 37 | 1010.7 |
| 20260506214012 | 83 | 170 | 9.0 | 15.0 | 0.00 | 0.00 | 0.00 | 37 | 1010.7 |
| 20260506213910 | 83 | 196 | 9.0 | 15.0 | 0.00 | 0.00 | 0.00 | 37 | 1010.7 |
| 20260506213812 | 83 | 162 | 9.0 | 15.0 | 0.00 | 0.00 | 0.00 | 36 | 1010.8 |
| 20260506213719 | 83 | 171 | 6.0 | 16.0 | 0.00 | 0.00 | 0.00 | 36 | 1010.8 |
| 20260506213609 | 83 | 194 | 4.0 | 16.0 | 0.00 | 0.00 | 0.00 | 37 | 1010.8 |
| 20260506213508 | 83 | 195 | 4.0 | 16.0 | 0.00 | 0.00 | 0.00 | 38 | 1010.8 |
| 20260506213407 | 83 | 190 | 4.0 | 16.0 | 0.00 | 0.00 | 0.00 | 37 | 1010.8 |
| 20260506213306 | 83 | 226 | 4.0 | 16.0 | 0.00 | 0.00 | 0.00 | 37 | 1010.9 |
| 20260506213208 | 83 | 235 | 4.0 | 16.0 | 0.00 | 0.00 | 0.00 | 37 | 1010.9 |
| 20260506213105 | 83 | 232 | 3.0 | 16.0 | 0.00 | 0.00 | 0.00 | 37 | 1010.9 |
| 20260506213004 | 83 | 254 | 7.0 | 16.0 | 0.00 | 0.00 | 0.00 | 39 | 1010.9 |
| 20260506212910 | 83 | 194 | 7.0 | 16.0 | 0.00 | 0.00 | 0.00 | 37 | 1010.9 |
| 20260506212855 | 83 | 192 | 6.0 | 16.0 | 0.00 | 0.00 | 0.00 | 37 | 1010.9 |
| 20260506212832 | 83 | 167 | 6.0 | 16.0 | 0.00 | 0.00 | 0.00 | 39 | 1010.9 |
| 20260506212822 | 83 | 180 | 3.0 | 16.0 | 0.00 | 0.00 | 0.00 | 39 | 1010.9 |
| 20260506212807 | 83 | 255 | 4.0 | 16.0 | 0.00 | 0.00 | 0.00 | 39 | 1010.9 |
| 20260506212757 | 83 | 221 | 6.0 | 16.0 | 0.00 | 0.00 | 0.00 | 39 | 1011.0 |
| 20260506212222 | 83 | 161 | 8.0 | 16.0 | 0.00 | 0.00 | 0.00 | 38 | 1011.0 |
| 20260506211903 | 83 | 153 | 5.0 | 14.0 | 0.00 | 0.00 | 0.00 | 39 | 1011.0 |
| 20260506211804 | 83 | 181 | 5.0 | 12.0 | 0.00 | 0.00 | 0.00 | 38 | 1011.0 |
| 20260506211714 | 83 | 236 | 3.0 | 12.0 | 0.00 | 0.00 | 0.00 | 38 | 1011.0 |
| 20260506211602 | 83 | 165 | 3.0 | 18.0 | 0.00 | 0.00 | 0.00 | 39 | 1011.1 |
| 20260506211536 | 83 | 207 | 6.0 | 18.0 | 0.00 | 0.00 | 0.00 | 38 | 1011.1 |
| 20260506211522 | 83 | 213 | 7.0 | 18.0 | 0.00 | 0.00 | 0.00 | 38 | 1011.1 |
| 20260506211211 | 83 | 186 | 5.0 | 18.0 | 0.00 | 0.00 | 0.00 | 37 | 1011.2 |
| 20260506211104 | 83 | 179 | 6.0 | 18.0 | 0.00 | 0.00 | 0.00 | 37 | 1011.2 |
| 20260506211034 | 83 | 216 | 5.0 | 18.0 | 0.00 | 0.00 | 0.00 | 37 | 1011.1 |
| 20260506211022 | 83 | 233 | 6.0 | 18.0 | 0.00 | 0.00 | 0.00 | 37 | 1011.1 |
| 20260506210705 | 83 | 174 | 5.0 | 18.0 | 0.00 | 0.00 | 0.00 | 37 | 1011.0 |
| 20260506210604 | 83 | 271 | 6.0 | 12.0 | 0.00 | 0.00 | 0.00 | 38 | 1011.0 |
| 20260506210501 | 83 | 263 | 6.0 | 12.0 | 0.00 | 0.00 | 0.00 | 38 | 1011.1 |
| 20260506210403 | 84 | 200 | 5.0 | 12.0 | 0.00 | 0.00 | 0.00 | 37 | 1011.1 |
| 20260506210301 | 84 | 221 | 4.0 | 10.0 | 0.00 | 0.00 | 0.00 | 38 | 1011.3 |
| 20260506210210 | 83 | 251 | 5.0 | 10.0 | 0.00 | 0.00 | 0.00 | 38 | 1011.3 |
| 20260506210002 | 83 | 201 | 6.0 | 10.0 | 0.00 | 0.00 | 0.00 | 38 | 1011.2 |
| 20260506205901 | 83 | 242 | 5.0 | 9.0 | 0.00 | 0.00 | 0.00 | 38 | 1011.3 |
| 20260506205801 | 83 | 198 | 4.0 | 10.0 | 0.00 | 0.00 | 0.00 | 38 | 1011.3 |
| 20260506205706 | 83 | 240 | 4.0 | 10.0 | 0.00 | 0.00 | 0.00 | 38 | 1011.3 |
| 20260506205600 | 83 | 202 | 5.0 | 10.0 | 0.00 | 0.00 | 0.00 | 38 | 1011.4 |
| 20260506205518 | 83 | 238 | 5.0 | 10.0 | 0.00 | 0.00 | 0.00 | 38 | 1011.3 |
| 20260506205505 | 83 | 243 | 4.0 | 10.0 | 0.00 | 0.00 | 0.00 | 38 | 1011.4 |
| 20260506205453 | 83 | 160 | 3.0 | 14.0 | 0.00 | 0.00 | 0.00 | 38 | 1011.4 |
| 20260506205128 | 83 | 167 | 5.0 | 14.0 | 0.00 | 0.00 | 0.00 | 39 | 1011.5 |
| 20260506205115 | 83 | 159 | 5.0 | 14.0 | 0.00 | 0.00 | 0.00 | 38 | 1011.4 |
| 20260506204754 | 83 | 228 | 4.0 | 14.0 | 0.00 | 0.00 | 0.00 | 38 | 1011.4 |
| 20260506204659 | 83 | 204 | 4.0 | 14.0 | 0.00 | 0.00 | 0.00 | 38 | 1011.4 |
| 20260506204557 | 83 | 146 | 5.0 | 14.0 | 0.00 | 0.00 | 0.00 | 38 | 1011.3 |
| 20260506204450 | 83 | 227 | 7.0 | 14.0 | 0.00 | 0.00 | 0.00 | 38 | 1011.4 |
| 20260506204354 | 83 | 245 | 6.0 | 14.0 | 0.00 | 0.00 | 0.00 | 38 | 1011.5 |
| 20260506204248 | 83 | 207 | 5.0 | 14.0 | 0.00 | 0.00 | 0.00 | 38 | 1011.4 |
| 20260506204158 | 83 | 175 | 5.0 | 13.0 | 0.00 | 0.00 | 0.00 | 37 | 1011.5 |
| 20260506204048 | 83 | 234 | 6.0 | 20.0 | 0.00 | 0.00 | 0.00 | 38 | 1011.5 |
| 20260506204018 | 83 | 232 | 6.0 | 20.0 | 0.00 | 0.00 | 0.00 | 38 | 1011.5 |
| 20260506204006 | 83 | 224 | 4.0 | 20.0 | 0.00 | 0.00 | 0.00 | 39 | 1011.4 |
| 20260506203657 | 83 | 192 | 6.0 | 20.0 | 0.00 | 0.00 | 0.00 | 38 | 1011.4 |
| 20260506203616 | 83 | 143 | 5.0 | 20.0 | 0.00 | 0.00 | 0.00 | 38 | 1011.5 |
| 20260506203604 | 83 | 148 | 5.0 | 20.0 | 0.00 | 0.00 | 0.00 | 38 | 1011.4 |
| 20260506203243 | 83 | 168 | 7.0 | 20.0 | 0.00 | 0.00 | 0.00 | 37 | 1011.5 |
| 20260506203152 | 83 | 178 | 5.0 | 20.0 | 0.00 | 0.00 | 0.00 | 38 | 1011.5 |
| 20260506203041 | 83 | 241 | 5.0 | 18.0 | 0.00 | 0.00 | 0.00 | 38 | 1011.5 |
| 20260506202941 | 83 | 173 | 5.0 | 18.0 | 0.00 | 0.00 | 0.00 | 38 | 1011.6 |
| 20260506202840 | 83 | 216 | 6.0 | 18.0 | 0.00 | 0.00 | 0.00 | 38 | 1011.6 |
| 20260506202823 | 83 | 223 | 6.0 | 18.0 | 0.00 | 0.00 | 0.00 | 37 | 1011.6 |
| 20260506202810 | 83 | 226 | 6.0 | 18.0 | 0.00 | 0.00 | 0.00 | 38 | 1011.7 |
| 20260506202438 | 83 | 192 | 8.0 | 18.0 | 0.00 | 0.00 | 0.00 | 37 | 1011.6 |
| 20260506202338 | 83 | 151 | 6.0 | 18.0 | 0.00 | 0.00 | 0.00 | 37 | 1011.7 |
| 20260506202236 | 83 | 284 | 4.0 | 18.0 | 0.00 | 0.00 | 0.00 | 38 | 1011.6 |
| 20260506202141 | 83 | 128 | 3.0 | 12.0 | 0.00 | 0.00 | 0.00 | 38 | 1011.6 |
| 20260506202105 | 83 | 240 | 3.0 | 12.0 | 0.00 | 0.00 | 0.00 | 40 | 1011.6 |
| 20260506202054 | 83 | 205 | 4.0 | 12.0 | 0.00 | 0.00 | 0.00 | 39 | 1011.6 |
| 20260506201735 | 82 | 202 | 6.0 | 12.0 | 0.00 | 0.00 | 0.00 | 38 | 1011.6 |
| 20260506201632 | 82 | 178 | 8.0 | 12.0 | 0.00 | 0.00 | 0.00 | 38 | 1011.6 |
| 20260506201532 | 83 | 315 | 7.0 | 12.0 | 0.00 | 0.00 | 0.00 | 37 | 1011.6 |
| 20260506201432 | 83 | 250 | 5.0 | 12.0 | 0.00 | 0.00 | 0.00 | 37 | 1011.7 |
| 20260506201414 | 83 | 223 | 6.0 | 11.0 | 0.00 | 0.00 | 0.00 | 37 | 1011.7 |
| 20260506201402 | 83 | 255 | 5.0 | 11.0 | 0.00 | 0.00 | 0.00 | 37 | 1011.6 |
| 20260506201101 | 82 | 259 | 4.0 | 15.0 | 0.00 | 0.00 | 0.00 | 36 | 1011.6 |
| 20260506201050 | 82 | 261 | 5.0 | 15.0 | 0.00 | 0.00 | 0.00 | 39 | 1011.6 |
| 20260506200731 | 83 | 253 | 4.0 | 15.0 | 0.00 | 0.00 | 0.00 | 38 | 1011.7 |
| 20260506200640 | 83 | 227 | 6.0 | 15.0 | 0.00 | 0.00 | 0.00 | 38 | 1011.7 |
| 20260506200530 | 82 | 196 | 6.0 | 15.0 | 0.00 | 0.00 | 0.00 | 38 | 1011.7 |
| 20260506200430 | 83 | 263 | 6.0 | 15.0 | 0.00 | 0.00 | 0.00 | 37 | 1011.7 |
| 20260506200331 | 83 | 211 | 5.0 | 15.0 | 0.00 | 0.00 | 0.00 | 38 | 1011.7 |
| 20260506200229 | 82 | 194 | 5.0 | 15.0 | 0.00 | 0.00 | 0.00 | 38 | 1011.7 |
| 20260506200143 | 83 | 207 | 6.0 | 12.0 | 0.00 | 0.00 | 0.00 | 39 | 1011.7 |
| 20260506200029 | 83 | 198 | 7.0 | 12.0 | 0.00 | 0.00 | 0.00 | 38 | 1011.7 |
| 20260506200009 | 83 | 157 | 6.0 | 12.0 | 0.00 | 0.00 | 0.00 | 37 | 1011.7 |
| 20260506195954 | 83 | 148 | 4.0 | 12.0 | 0.00 | 0.00 | 0.00 | 39 | 1011.8 |
| 20260506195637 | 83 | 179 | 5.0 | 9.0 | 0.00 | 0.00 | 0.00 | 38 | 1011.8 |
| 20260506195528 | 83 | 287 | 4.0 | 9.0 | 0.00 | 0.00 | 0.00 | 39 | 1011.7 |
| 20260506195427 | 83 | 229 | 3.0 | 9.0 | 0.00 | 0.00 | 0.00 | 40 | 1011.7 |
| 20260506195329 | 83 | 342 | 3.0 | 10.0 | 0.00 | 0.00 | 0.00 | 40 | 1011.7 |
| 20260506195226 | 83 | 151 | 3.0 | 10.0 | 0.00 | 0.00 | 0.00 | 40 | 1011.8 |
| 20260506195137 | 82 | 188 | 2.0 | 10.0 | 0.00 | 0.00 | 0.00 | 39 | 1011.8 |
| 20260506195024 | 82 | 225 | 3.0 | 10.0 | 0.00 | 0.00 | 0.00 | 39 | 1011.7 |
| 20260506194928 | 82 | 238 | 4.0 | 10.0 | 0.00 | 0.00 | 0.00 | 39 | 1011.7 |
| 20260506194907 | 82 | 191 | 5.0 | 10.0 | 0.00 | 0.00 | 0.00 | 38 | 1011.8 |
| 20260506194856 | 82 | 211 | 4.0 | 10.0 | 0.00 | 0.00 | 0.00 | 39 | 1011.8 |
| 20260506194525 | 82 | 221 | 6.0 | 10.0 | 0.00 | 0.00 | 0.00 | 39 | 1011.8 |
| 20260506194422 | 82 | 155 | 5.0 | 10.0 | 0.00 | 0.00 | 0.00 | 39 | 1011.8 |
| 20260506194324 | 82 | 177 | 3.0 | 7.0 | 0.00 | 0.00 | 0.00 | 39 | 1011.9 |
| 20260506194220 | 82 | 269 | 3.0 | 7.0 | 0.00 | 0.00 | 0.00 | 39 | 1011.8 |
| 20260506194123 | 82 | 248 | 5.0 | 7.0 | 0.00 | 0.00 | 0.00 | 38 | 1011.8 |
| 20260506193859 | 82 | 179 | 5.0 | 11.0 | 0.00 | 0.00 | 0.00 | 38 | 1011.9 |
| 20260506193758 | 82 | 170 | 4.0 | 11.0 | 0.00 | 0.00 | 0.00 | 39 | 1011.9 |
| 20260506193657 | 82 | 80 | 4.0 | 9.0 | 0.00 | 0.00 | 0.00 | 39 | 1011.9 |
| 20260506193557 | 82 | 173 | 3.0 | 9.0 | 0.00 | 0.00 | 0.00 | 39 | 1011.9 |
| 20260506193538 | 82 | 197 | 2.0 | 9.0 | 0.00 | 0.00 | 0.00 | 39 | 1011.9 |
| 20260506193527 | 81 | 219 | 4.0 | 9.0 | 0.00 | 0.00 | 0.00 | 40 | 1011.9 |
| 20260506193158 | 81 | 164 | 3.0 | 14.0 | 0.00 | 0.00 | 0.00 | 41 | 1011.9 |
| 20260506193053 | 81 | 159 | 3.0 | 14.0 | 0.00 | 0.00 | 0.00 | 41 | 1012.0 |
| 20260506192955 | 81 | 163 | 4.0 | 14.0 | 0.00 | 0.00 | 0.00 | 42 | 1012.0 |
| 20260506192852 | 81 | 208 | 6.0 | 14.0 | 0.00 | 0.00 | 0.00 | 41 | 1012.0 |
| 20260506192754 | 80 | 161 | 6.0 | 14.0 | 0.00 | 0.00 | 0.00 | 41 | 1012.0 |
| 20260506192651 | 80 | 182 | 5.0 | 14.0 | 0.00 | 0.00 | 0.00 | 42 | 1012.0 |
| 20260506192550 | 80 | 175 | 7.0 | 14.0 | 0.00 | 0.00 | 0.00 | 42 | 1012.0 |
| 20260506192450 | 80 | 170 | 7.0 | 14.0 | 0.00 | 0.00 | 0.00 | 41 | 1012.0 |
| 20260506192349 | 81 | 273 | 3.0 | 14.0 | 0.00 | 0.00 | 0.00 | 41 | 1012.0 |
| 20260506192306 | 80 | 254 | 2.0 | 13.0 | 0.00 | 0.00 | 0.00 | 42 | 1012.0 |
| 20260506192247 | 80 | 226 | 3.0 | 13.0 | 0.00 | 0.00 | 0.00 | 42 | 1012.0 |
| 20260506192235 | 80 | 238 | 4.0 | 13.0 | 0.00 | 0.00 | 0.00 | 43 | 1012.0 |
| 20260506191848 | 80 | 169 | 4.0 | 13.0 | 0.00 | 0.00 | 0.00 | 41 | 1012.0 |
| 20260506191745 | 80 | 201 | 3.0 | 11.0 | 0.00 | 0.00 | 0.00 | 42 | 1012.0 |
| 20260506191644 | 80 | 141 | 4.0 | 11.0 | 0.00 | 0.00 | 0.00 | 43 | 1011.9 |
| 20260506191544 | 80 | 195 | 5.0 | 11.0 | 0.00 | 0.00 | 0.00 | 43 | 1012.0 |
| 20260506191447 | 79 | 212 | 7.0 | 18.0 | 0.00 | 0.00 | 0.00 | 43 | 1011.9 |
| 20260506191348 | 79 | 188 | 6.0 | 18.0 | 0.00 | 0.00 | 0.00 | 44 | 1011.9 |
| 20260506191306 | 79 | 153 | 4.0 | 18.0 | 0.00 | 0.00 | 0.00 | 44 | 1012.0 |
| 20260506191252 | 79 | 247 | 5.0 | 18.0 | 0.00 | 0.00 | 0.00 | 43 | 1011.9 |
| 20260506190943 | 79 | 227 | 6.0 | 18.0 | 0.00 | 0.00 | 0.00 | 43 | 1012.0 |
| 20260506190927 | 79 | 157 | 4.0 | 18.0 | 0.00 | 0.00 | 0.00 | 43 | 1012.0 |
| 20260506190905 | 78 | 173 | 6.0 | 18.0 | 0.00 | 0.00 | 0.00 | 45 | 1012.0 |
| 20260506190628 | 79 | 288 | 5.0 | 18.0 | 0.00 | 0.00 | 0.00 | 46 | 1012.1 |
| 20260506190616 | 79 | 262 | 6.0 | 15.0 | 0.00 | 0.00 | 0.00 | 46 | 1012.1 |
| 20260506190605 | 78 | 167 | 4.0 | 15.0 | 0.00 | 0.00 | 0.00 | 46 | 1012.1 |
| 20260506190539 | 78 | 198 | 5.0 | 15.0 | 0.00 | 0.00 | 0.00 | 45 | 1012.1 |
| 20260506190309 | 78 | 180 | 5.0 | 15.0 | 0.00 | 0.00 | 0.00 | 44 | 1012.1 |
| 20260506190258 | 78 | 194 | 5.0 | 15.0 | 0.00 | 0.00 | 0.00 | 44 | 1012.1 |
| 20260506190246 | 78 | 236 | 6.0 | 15.0 | 0.00 | 0.00 | 0.00 | 45 | 1012.1 |
| 20260506185519 | 78 | 164 | 4.0 | 15.0 | 0.00 | 0.00 | 0.00 | 45 | 1012.1 |
| 20260506185508 | 78 | 197 | 4.0 | 15.0 | 0.00 | 0.00 | 0.00 | 46 | 1012.1 |
| 20260506185126 | 78 | 184 | 5.0 | 15.0 | 0.00 | 0.00 | 0.00 | 46 | 1012.1 |
| 20260506185026 | 78 | 159 | 4.0 | 15.0 | 0.00 | 0.00 | 0.00 | 47 | 1012.1 |
| 20260506184926 | 78 | 169 | 3.0 | 15.0 | 0.00 | 0.00 | 0.00 | 48 | 1012.0 |
| 20260506184831 | 77 | 249 | 4.0 | 15.0 | 0.00 | 0.00 | 0.00 | 48 | 1012.0 |
| 20260506184725 | 77 | 269 | 6.0 | 15.0 | 0.00 | 0.00 | 0.00 | 47 | 1012.0 |
| 20260506184623 | 77 | 265 | 6.0 | 15.0 | 0.00 | 0.00 | 0.00 | 47 | 1012.1 |
| 20260506184524 | 77 | 192 | 4.0 | 11.0 | 0.00 | 0.00 | 0.00 | 47 | 1012.1 |
| 20260506184423 | 77 | 171 | 4.0 | 11.0 | 0.00 | 0.00 | 0.00 | 47 | 1012.1 |
| 20260506184406 | 77 | 220 | 4.0 | 11.0 | 0.00 | 0.00 | 0.00 | 48 | 1012.1 |
| 20260506184343 | 77 | 229 | 4.0 | 11.0 | 0.00 | 0.00 | 0.00 | 47 | 1012.1 |
| 20260506184020 | 77 | 199 | 5.0 | 11.0 | 0.00 | 0.00 | 0.00 | 47 | 1012.1 |
| 20260506183921 | 77 | 242 | 6.0 | 11.0 | 0.00 | 0.00 | 0.00 | 47 | 1012.1 |
| 20260506183829 | 77 | 228 | 6.0 | 11.0 | 0.00 | 0.00 | 0.00 | 46 | 1012.2 |
| 20260506183718 | 77 | 171 | 5.0 | 18.0 | 0.00 | 0.00 | 0.00 | 46 | 1012.1 |
| 20260506183617 | 77 | 167 | 4.0 | 18.0 | 0.00 | 0.00 | 0.00 | 47 | 1012.2 |
| 20260506183517 | 77 | 224 | 5.0 | 18.0 | 0.00 | 0.00 | 0.00 | 47 | 1012.1 |
| 20260506183415 | 77 | 217 | 5.0 | 18.0 | 0.00 | 0.00 | 0.00 | 46 | 1012.1 |
| 20260506183324 | 77 | 284 | 5.0 | 18.0 | 0.00 | 0.00 | 0.00 | 47 | 1012.2 |
| 20260506183215 | 77 | 200 | 5.0 | 18.0 | 0.00 | 0.00 | 0.00 | 47 | 1012.2 |
| 20260506183145 | 77 | 213 | 5.0 | 18.0 | 0.00 | 0.00 | 0.00 | 48 | 1012.1 |
| 20260506183133 | 77 | 238 | 6.0 | 18.0 | 0.00 | 0.00 | 0.00 | 47 | 1012.1 |
| 20260506182811 | 77 | 305 | 8.0 | 18.0 | 0.00 | 0.00 | 0.00 | 47 | 1012.2 |
| 20260506182710 | 77 | 229 | 5.0 | 11.0 | 0.00 | 0.00 | 0.00 | 47 | 1012.3 |
| 20260506182610 | 77 | 158 | 4.0 | 11.0 | 0.00 | 0.00 | 0.00 | 49 | 1012.3 |
| 20260506182553 | 77 | 145 | 6.0 | 11.0 | 0.00 | 0.00 | 0.00 | 48 | 1012.4 |
| 20260506182540 | 77 | 263 | 6.0 | 11.0 | 0.00 | 0.00 | 0.00 | 47 | 1012.3 |
| 20260506182211 | 77 | 194 | 5.0 | 14.0 | 0.00 | 0.00 | 0.00 | 48 | 1012.3 |
| 20260506182107 | 77 | 257 | 5.0 | 14.0 | 0.00 | 0.00 | 0.00 | 48 | 1012.3 |
| 20260506182006 | 77 | 198 | 5.0 | 14.0 | 0.00 | 0.00 | 0.00 | 47 | 1012.4 |
| 20260506181907 | 77 | 173 | 5.0 | 14.0 | 0.00 | 0.00 | 0.00 | 47 | 1012.3 |
| 20260506181802 | 77 | 250 | 4.0 | 14.0 | 0.00 | 0.00 | 0.00 | 48 | 1012.4 |
| 20260506181705 | 76 | 222 | 4.0 | 14.0 | 0.00 | 0.00 | 0.00 | 50 | 1012.4 |
| 20260506181601 | 76 | 106 | 6.0 | 14.0 | 0.00 | 0.00 | 0.00 | 50 | 1012.4 |
| 20260506181503 | 76 | 197 | 7.0 | 14.0 | 0.00 | 0.00 | 0.00 | 50 | 1012.4 |
| 20260506181403 | 76 | 171 | 5.0 | 14.0 | 0.00 | 0.00 | 0.00 | 50 | 1012.4 |
| 20260506181336 | 76 | 186 | 6.0 | 12.0 | 0.00 | 0.00 | 0.00 | 50 | 1012.4 |
| 20260506181323 | 76 | 232 | 6.0 | 12.0 | 0.00 | 0.00 | 0.00 | 50 | 1012.4 |
| 20260506180959 | 76 | 161 | 6.0 | 11.0 | 0.00 | 0.00 | 0.00 | 50 | 1012.4 |
| 20260506180859 | 76 | 192 | 5.0 | 11.0 | 0.00 | 0.00 | 0.00 | 50 | 1012.4 |
| 20260506180758 | 76 | 249 | 5.0 | 11.0 | 0.00 | 0.00 | 0.00 | 50 | 1012.5 |
| 20260506180658 | 76 | 196 | 6.0 | 11.0 | 0.00 | 0.00 | 0.00 | 50 | 1012.4 |
| 20260506180625 | 76 | 178 | 5.0 | 11.0 | 0.00 | 0.00 | 0.00 | 50 | 1012.4 |
| 20260506180612 | 76 | 218 | 4.0 | 13.0 | 0.00 | 0.00 | 0.00 | 51 | 1012.4 |
| 20260506180601 | 76 | 153 | 5.0 | 14.0 | 0.00 | 0.00 | 0.00 | 51 | 1012.4 |
| 20260506180314 | 76 | 232 | 5.0 | 14.0 | 0.00 | 0.00 | 0.00 | 50 | 1012.5 |
| 20260506175953 | 76 | 163 | 5.0 | 14.0 | 0.00 | 0.00 | 0.00 | 51 | 1012.5 |
| 20260506175852 | 75 | 233 | 5.0 | 14.0 | 0.00 | 0.00 | 0.00 | 51 | 1012.5 |
| 20260506175751 | 75 | 240 | 5.0 | 14.0 | 0.00 | 0.00 | 0.00 | 52 | 1012.5 |
| 20260506175723 | 75 | 149 | 7.0 | 14.0 | 0.00 | 0.00 | 0.00 | 52 | 1012.4 |
| 20260506175712 | 75 | 292 | 7.0 | 14.0 | 0.00 | 0.00 | 0.00 | 51 | 1012.4 |
| 20260506175348 | 75 | 236 | 4.0 | 12.0 | 0.00 | 0.00 | 0.00 | 51 | 1012.4 |
| 20260506175248 | 75 | 163 | 4.0 | 12.0 | 0.00 | 0.00 | 0.00 | 53 | 1012.5 |
| 20260506175149 | 75 | 242 | 4.0 | 12.0 | 0.00 | 0.00 | 0.00 | 52 | 1012.4 |
| 20260506175046 | 75 | 238 | 5.0 | 12.0 | 0.00 | 0.00 | 0.00 | 52 | 1012.5 |
| 20260506174946 | 75 | 191 | 6.0 | 12.0 | 0.00 | 0.00 | 0.00 | 52 | 1012.5 |
| 20260506174845 | 75 | 228 | 6.0 | 12.0 | 0.00 | 0.00 | 0.00 | 52 | 1012.4 |
| 20260506174744 | 75 | 194 | 6.0 | 12.0 | 0.00 | 0.00 | 0.00 | 52 | 1012.5 |
| 20260506174643 | 75 | 250 | 5.0 | 12.0 | 0.00 | 0.00 | 0.00 | 52 | 1012.5 |
| 20260506174613 | 74 | 206 | 3.0 | 14.0 | 0.00 | 0.00 | 0.00 | 52 | 1012.5 |
| 20260506174601 | 74 | 158 | 3.0 | 14.0 | 0.00 | 0.00 | 0.00 | 52 | 1012.4 |
| 20260506174241 | 74 | 202 | 5.0 | 20.0 | 0.00 | 0.00 | 0.00 | 53 | 1012.6 |
| 20260506174141 | 74 | 159 | 5.0 | 20.0 | 0.00 | 0.00 | 0.00 | 53 | 1012.5 |
| 20260506174040 | 74 | 210 | 5.0 | 20.0 | 0.00 | 0.00 | 0.00 | 55 | 1012.5 |
| 20260506173939 | 74 | 188 | 5.0 | 20.0 | 0.00 | 0.00 | 0.00 | 55 | 1012.5 |
| 20260506173839 | 74 | 178 | 6.0 | 20.0 | 0.00 | 0.00 | 0.00 | 55 | 1012.5 |
| 20260506173739 | 74 | 288 | 9.0 | 20.0 | 0.00 | 0.00 | 0.00 | 53 | 1012.6 |
| 20260506173636 | 74 | 196 | 10.0 | 20.0 | 0.00 | 0.00 | 0.00 | 53 | 1012.6 |
| 20260506173536 | 74 | 193 | 9.0 | 20.0 | 0.00 | 0.00 | 0.00 | 53 | 1012.6 |
| 20260506173436 | 74 | 145 | 6.0 | 20.0 | 0.00 | 0.00 | 0.00 | 52 | 1012.7 |
| 20260506173335 | 74 | 235 | 6.0 | 12.0 | 0.00 | 0.00 | 0.00 | 52 | 1012.6 |
| 20260506173234 | 74 | 204 | 7.0 | 12.0 | 0.00 | 0.00 | 0.00 | 52 | 1012.6 |
| 20260506173147 | 74 | 167 | 5.0 | 12.0 | 0.00 | 0.00 | 0.00 | 53 | 1012.6 |
| 20260506173131 | 74 | 272 | 3.0 | 12.0 | 0.00 | 0.00 | 0.00 | 54 | 1012.6 |
| 20260506173119 | 74 | 243 | 4.0 | 12.0 | 0.00 | 0.00 | 0.00 | 55 | 1012.7 |
| 20260506173107 | 74 | 177 | 4.0 | 12.0 | 0.00 | 0.00 | 0.00 | 54 | 1012.6 |
| 20260506172824 | 74 | 215 | 5.0 | 12.0 | 0.00 | 0.00 | 0.00 | 53 | 1012.7 |
| 20260506172548 | 74 | 193 | 5.0 | 12.0 | 0.00 | 0.00 | 0.00 | 54 | 1012.8 |
| 20260506172229 | 74 | 219 | 4.0 | 11.0 | 0.00 | 0.00 | 0.00 | 54 | 1012.7 |
| 20260506172131 | 73 | 242 | 3.0 | 11.0 | 0.00 | 0.00 | 0.00 | 55 | 1012.8 |
| 20260506172029 | 73 | 167 | 5.0 | 11.0 | 0.00 | 0.00 | 0.00 | 55 | 1012.8 |
| 20260506171929 | 73 | 250 | 5.0 | 11.0 | 0.00 | 0.00 | 0.00 | 54 | 1012.8 |
| 20260506171829 | 73 | 150 | 3.0 | 11.0 | 0.00 | 0.00 | 0.00 | 55 | 1012.8 |
| 20260506171802 | 73 | 233 | 3.0 | 11.0 | 0.00 | 0.00 | 0.00 | 55 | 1012.8 |
| 20260506171749 | 73 | 180 | 3.0 | 11.0 | 0.00 | 0.00 | 0.00 | 55 | 1012.8 |
| 20260506171429 | 73 | 205 | 5.0 | 13.0 | 0.00 | 0.00 | 0.00 | 55 | 1012.8 |
| 20260506171329 | 73 | 142 | 5.0 | 13.0 | 0.00 | 0.00 | 0.00 | 55 | 1012.8 |
| 20260506171228 | 72 | 186 | 3.0 | 13.0 | 0.00 | 0.00 | 0.00 | 56 | 1012.8 |
| 20260506171129 | 72 | 196 | 3.0 | 13.0 | 0.00 | 0.00 | 0.00 | 57 | 1012.8 |
| 20260506171029 | 72 | 278 | 4.0 | 13.0 | 0.00 | 0.00 | 0.00 | 57 | 1012.8 |
| 20260506170929 | 72 | 152 | 4.0 | 13.0 | 0.00 | 0.00 | 0.00 | 56 | 1012.8 |
| 20260506170830 | 72 | 227 | 5.0 | 13.0 | 0.00 | 0.00 | 0.00 | 56 | 1012.9 |
| 20260506170729 | 72 | 196 | 7.0 | 13.0 | 0.00 | 0.00 | 0.00 | 56 | 1012.8 |
| 20260506170631 | 72 | 161 | 6.0 | 13.0 | 0.00 | 0.00 | 0.00 | 57 | 1012.9 |
| 20260506170528 | 72 | 152 | 6.0 | 11.0 | 0.00 | 0.00 | 0.00 | 57 | 1012.8 |
| 20260506170432 | 72 | 214 | 5.0 | 11.0 | 0.00 | 0.00 | 0.00 | 57 | 1012.8 |
| 20260506170326 | 72 | 142 | 6.0 | 14.0 | 0.00 | 0.00 | 0.00 | 57 | 1012.8 |
| 20260506170230 | 72 | 225 | 5.0 | 14.0 | 0.00 | 0.00 | 0.00 | 57 | 1012.8 |
| 20260506170157 | 72 | 182 | 4.0 | 14.0 | 0.00 | 0.00 | 0.00 | 58 | 1012.9 |
| 20260506170142 | 71 | 207 | 4.0 | 14.0 | 0.00 | 0.00 | 0.00 | 58 | 1012.9 |
| 20260506165823 | 71 | 229 | 3.0 | 14.0 | 0.00 | 0.00 | 0.00 | 58 | 1012.9 |
| 20260506165716 | 71 | 184 | 4.0 | 14.0 | 0.00 | 0.00 | 0.00 | 58 | 1012.9 |
| 20260506165615 | 71 | 222 | 5.0 | 14.0 | 0.00 | 0.00 | 0.00 | 58 | 1012.9 |
| 20260506165514 | 71 | 226 | 6.0 | 14.0 | 0.00 | 0.00 | 0.00 | 57 | 1012.9 |
| 20260506165414 | 71 | 146 | 6.0 | 14.0 | 0.00 | 0.00 | 0.00 | 58 | 1012.9 |
| 20260506165313 | 71 | 141 | 5.0 | 14.0 | 0.00 | 0.00 | 0.00 | 58 | 1012.9 |
| 20260506165213 | 71 | 169 | 6.0 | 14.0 | 0.00 | 0.00 | 0.00 | 58 | 1012.9 |
| 20260506165112 | 71 | 155 | 5.0 | 14.0 | 0.00 | 0.00 | 0.00 | 58 | 1012.9 |
| 20260506165011 | 70 | 186 | 6.0 | 14.0 | 0.00 | 0.00 | 0.00 | 58 | 1012.9 |
| 20260506164911 | 70 | 232 | 6.0 | 14.0 | 0.00 | 0.00 | 0.00 | 58 | 1012.8 |
| 20260506164810 | 70 | 196 | 6.0 | 13.0 | 0.00 | 0.00 | 0.00 | 59 | 1012.9 |
| 20260506164711 | 70 | 211 | 4.0 | 13.0 | 0.00 | 0.00 | 0.00 | 60 | 1012.9 |
| 20260506164608 | 70 | 140 | 3.0 | 13.0 | 0.00 | 0.00 | 0.00 | 60 | 1012.9 |
| 20260506164538 | 70 | 230 | 4.0 | 13.0 | 0.00 | 0.00 | 0.00 | 60 | 1012.9 |
| 20260506164525 | 70 | 227 | 4.0 | 13.0 | 0.00 | 0.00 | 0.00 | 59 | 1013.0 |
| 20260506164205 | 70 | 285 | 7.0 | 13.0 | 0.00 | 0.00 | 0.00 | 59 | 1013.0 |
| 20260506164105 | 70 | 180 | 5.0 | 13.0 | 0.00 | 0.00 | 0.00 | 59 | 1013.0 |
| 20260506164035 | 70 | 195 | 5.0 | 12.0 | 0.00 | 0.00 | 0.00 | 60 | 1013.0 |
| 20260506164023 | 70 | 196 | 5.0 | 12.0 | 0.00 | 0.00 | 0.00 | 60 | 1013.0 |
| 20260506163706 | 69 | 161 | 5.0 | 12.0 | 0.00 | 0.00 | 0.00 | 60 | 1013.1 |
| 20260506163602 | 69 | 123 | 6.0 | 12.0 | 0.00 | 0.00 | 0.00 | 60 | 1013.1 |
| 20260506163507 | 69 | 205 | 5.0 | 12.0 | 0.00 | 0.00 | 0.00 | 60 | 1013.0 |
| 20260506163446 | 69 | 215 | 4.0 | 12.0 | 0.00 | 0.00 | 0.00 | 61 | 1013.0 |
| 20260506163435 | 69 | 188 | 4.0 | 10.0 | 0.00 | 0.00 | 0.00 | 61 | 1013.1 |
| 20260506163104 | 69 | 196 | 4.0 | 10.0 | 0.00 | 0.00 | 0.00 | 61 | 1013.0 |
| 20260506163001 | 69 | 200 | 4.0 | 13.0 | 0.00 | 0.00 | 0.00 | 61 | 1013.1 |
| 20260506162907 | 69 | 236 | 4.0 | 13.0 | 0.00 | 0.00 | 0.00 | 61 | 1013.1 |
| 20260506162801 | 69 | 186 | 4.0 | 13.0 | 0.00 | 0.00 | 0.00 | 61 | 1013.1 |
| 20260506162705 | 69 | 195 | 4.0 | 13.0 | 0.00 | 0.00 | 0.00 | 61 | 1013.1 |
| 20260506162601 | 69 | 215 | 4.0 | 15.0 | 0.00 | 0.00 | 0.00 | 61 | 1013.0 |
| 20260506162506 | 69 | 225 | 5.0 | 15.0 | 0.00 | 0.00 | 0.00 | 62 | 1013.1 |
| 20260506162401 | 69 | 249 | 5.0 | 15.0 | 0.00 | 0.00 | 0.00 | 62 | 1013.1 |
| 20260506162306 | 69 | 197 | 5.0 | 15.0 | 0.00 | 0.00 | 0.00 | 62 | 1013.1 |
| 20260506162202 | 68 | 185 | 4.0 | 15.0 | 0.00 | 0.00 | 0.00 | 62 | 1013.0 |
| 20260506162107 | 68 | 200 | 2.0 | 15.0 | 0.00 | 0.00 | 0.00 | 62 | 1013.0 |
| 20260506162002 | 68 | 257 | 3.0 | 15.0 | 0.00 | 0.00 | 0.00 | 64 | 1013.0 |
| 20260506161907 | 68 | 259 | 6.0 | 15.0 | 0.00 | 0.00 | 0.00 | 63 | 1013.0 |
| 20260506161802 | 68 | 198 | 7.0 | 15.0 | 0.00 | 0.00 | 0.00 | 63 | 1013.0 |
| 20260506161706 | 68 | 143 | 6.0 | 15.0 | 0.00 | 0.00 | 0.00 | 63 | 1013.0 |
| 20260506161601 | 68 | 208 | 6.0 | 13.0 | 0.00 | 0.00 | 0.00 | 63 | 1013.0 |
| 20260506161504 | 68 | 202 | 5.0 | 13.0 | 0.00 | 0.00 | 0.00 | 63 | 1013.0 |
| 20260506161400 | 68 | 273 | 5.0 | 13.0 | 0.00 | 0.00 | 0.00 | 63 | 1013.0 |
| 20260506161306 | 68 | 211 | 5.0 | 13.0 | 0.00 | 0.00 | 0.00 | 63 | 1012.9 |
| 20260506161203 | 68 | 165 | 6.0 | 13.0 | 0.00 | 0.00 | 0.00 | 63 | 1013.0 |
| 20260506161104 | 68 | 228 | 6.0 | 13.0 | 0.00 | 0.00 | 0.00 | 63 | 1013.0 |
| 20260506161001 | 68 | 182 | 6.0 | 13.0 | 0.00 | 0.00 | 0.00 | 63 | 1013.1 |
| 20260506160905 | 68 | 163 | 5.0 | 12.0 | 0.00 | 0.00 | 0.00 | 62 | 1013.0 |
| 20260506160834 | 68 | 225 | 4.0 | 12.0 | 0.00 | 0.00 | 0.00 | 63 | 1013.0 |
| 20260506160807 | 68 | 234 | 4.0 | 12.0 | 0.00 | 0.00 | 0.00 | 63 | 1013.0 |
| 20260506160755 | 68 | 265 | 5.0 | 12.0 | 0.00 | 0.00 | 0.00 | 63 | 1013.0 |
| 20260506160523 | 68 | 143 | 5.0 | 12.0 | 0.00 | 0.00 | 0.00 | 63 | 1013.0 |
| 20260506160200 | 68 | 184 | 4.0 | 13.0 | 0.00 | 0.00 | 0.00 | 63 | 1013.0 |
| 20260506160059 | 68 | 199 | 3.0 | 15.0 | 0.00 | 0.00 | 0.00 | 63 | 1013.0 |
| 20260506155957 | 68 | 269 | 4.0 | 15.0 | 0.00 | 0.00 | 0.00 | 63 | 1012.9 |
| 20260506155858 | 67 | 184 | 3.0 | 15.0 | 0.00 | 0.00 | 0.00 | 64 | 1012.9 |
| 20260506155756 | 67 | 173 | 2.0 | 15.0 | 0.00 | 0.00 | 0.00 | 64 | 1012.9 |
| 20260506155656 | 67 | 163 | 2.0 | 15.0 | 0.00 | 0.00 | 0.00 | 64 | 1012.9 |
| 20260506155555 | 67 | 180 | 4.0 | 15.0 | 0.00 | 0.00 | 0.00 | 64 | 1012.9 |
| 20260506155457 | 67 | 187 | 5.0 | 15.0 | 0.00 | 0.00 | 0.00 | 64 | 1013.0 |
| 20260506155439 | 67 | 182 | 5.0 | 15.0 | 0.00 | 0.00 | 0.00 | 64 | 1012.9 |
| 20260506155426 | 67 | 174 | 5.0 | 15.0 | 0.00 | 0.00 | 0.00 | 64 | 1012.9 |
| 20260506155053 | 67 | 207 | 4.0 | 12.0 | 0.00 | 0.00 | 0.00 | 64 | 1013.0 |
| 20260506155012 | 67 | 181 | 3.0 | 12.0 | 0.00 | 0.00 | 0.00 | 64 | 1013.0 |
| 20260506154852 | 67 | 143 | 5.0 | 10.0 | 0.00 | 0.00 | 0.00 | 64 | 1013.0 |
| 20260506154749 | 67 | 186 | 5.0 | 10.0 | 0.00 | 0.00 | 0.00 | 63 | 1013.0 |
| 20260506154651 | 67 | 178 | 5.0 | 10.0 | 0.00 | 0.00 | 0.00 | 63 | 1013.0 |
| 20260506154618 | 67 | 277 | 4.0 | 9.0 | 0.00 | 0.00 | 0.00 | 63 | 1013.0 |
| 20260506154607 | 67 | 196 | 4.0 | 9.0 | 0.00 | 0.00 | 0.00 | 64 | 1013.0 |
| 20260506154249 | 67 | 204 | 4.0 | 11.0 | 0.00 | 0.00 | 0.00 | 63 | 1013.0 |
| 20260506154145 | 67 | 152 | 2.0 | 11.0 | 0.00 | 0.00 | 0.00 | 64 | 1013.0 |
| 20260506154046 | 67 | 217 | 2.0 | 11.0 | 0.00 | 0.00 | 0.00 | 64 | 1013.0 |
| 20260506154020 | 67 | 144 | 2.0 | 11.0 | 0.00 | 0.00 | 0.00 | 64 | 1012.9 |
| 20260506154009 | 66 | 196 | 4.0 | 11.0 | 0.00 | 0.00 | 0.00 | 64 | 1013.0 |
| 20260506153715 | 66 | 164 | 5.0 | 11.0 | 0.00 | 0.00 | 0.00 | 64 | 1012.9 |
| 20260506153703 | 66 | 229 | 5.0 | 11.0 | 0.00 | 0.00 | 0.00 | 64 | 1012.9 |
| 20260506153353 | 66 | 216 | 4.0 | 11.0 | 0.00 | 0.00 | 0.00 | 64 | 1012.9 |
| 20260506153338 | 66 | 205 | 2.0 | 11.0 | 0.00 | 0.00 | 0.00 | 64 | 1012.9 |
| 20260506153310 | 66 | 239 | 2.0 | 11.0 | 0.00 | 0.00 | 0.00 | 65 | 1012.8 |
| 20260506153259 | 66 | 256 | 3.0 | 11.0 | 0.00 | 0.00 | 0.00 | 65 | 1012.9 |
| 20260506153027 | 66 | 160 | 5.0 | 11.0 | 0.00 | 0.00 | 0.00 | 65 | 1012.9 |
| 20260506152738 | 66 | 195 | 4.0 | 9.0 | 0.00 | 0.00 | 0.00 | 64 | 1012.9 |
| 20260506152726 | 66 | 153 | 5.0 | 9.0 | 0.00 | 0.00 | 0.00 | 65 | 1012.9 |
| 20260506152713 | 66 | 243 | 5.0 | 10.0 | 0.00 | 0.00 | 0.00 | 65 | 1012.9 |
| 20260506152132 | 65 | 204 | 4.0 | 10.0 | 0.00 | 0.00 | 0.00 | 65 | 1012.8 |
| 20260506152034 | 65 | 168 | 3.0 | 10.0 | 0.00 | 0.00 | 0.00 | 65 | 1012.8 |
| 20260506151956 | 65 | 199 | 3.0 | 10.0 | 0.00 | 0.00 | 0.00 | 65 | 1012.8 |
| 20260506151831 | 65 | 121 | 4.0 | 11.0 | 0.00 | 0.00 | 0.00 | 65 | 1012.9 |
| 20260506151729 | 65 | 179 | 4.0 | 11.0 | 0.00 | 0.00 | 0.00 | 65 | 1012.9 |
| 20260506151630 | 65 | 189 | 4.0 | 13.0 | 0.00 | 0.00 | 0.00 | 65 | 1012.9 |
| 20260506151529 | 65 | 195 | 5.0 | 13.0 | 0.00 | 0.00 | 0.00 | 65 | 1012.9 |
| 20260506151431 | 65 | 188 | 4.0 | 13.0 | 0.00 | 0.00 | 0.00 | 66 | 1012.9 |
| 20260506151330 | 65 | 134 | 4.0 | 13.0 | 0.00 | 0.00 | 0.00 | 66 | 1012.9 |
| 20260506151231 | 65 | 202 | 4.0 | 13.0 | 0.00 | 0.00 | 0.00 | 66 | 1012.9 |
| 20260506151129 | 65 | 248 | 4.0 | 13.0 | 0.00 | 0.00 | 0.00 | 66 | 1012.9 |
| 20260506151029 | 65 | 190 | 6.0 | 13.0 | 0.00 | 0.00 | 0.00 | 66 | 1013.0 |
| 20260506150930 | 64 | 190 | 6.0 | 13.0 | 0.00 | 0.00 | 0.00 | 66 | 1013.0 |
| 20260506150830 | 64 | 172 | 6.0 | 13.0 | 0.00 | 0.00 | 0.00 | 66 | 1013.0 |
| 20260506150729 | 65 | 145 | 4.0 | 13.0 | 0.00 | 0.00 | 0.00 | 66 | 1013.0 |
| 20260506150632 | 64 | 199 | 4.0 | 12.0 | 0.00 | 0.00 | 0.00 | 66 | 1012.9 |
| 20260506150558 | 64 | 241 | 5.0 | 12.0 | 0.00 | 0.00 | 0.00 | 67 | 1013.0 |
| 20260506150548 | 64 | 188 | 5.0 | 12.0 | 0.00 | 0.00 | 0.00 | 67 | 1013.0 |
| 20260506150535 | 64 | 190 | 5.0 | 12.0 | 0.00 | 0.00 | 0.00 | 67 | 1012.9 |
| 20260506150249 | 64 | 153 | 4.0 | 12.0 | 0.00 | 0.00 | 0.00 | 67 | 1012.9 |
| 20260506145929 | 64 | 211 | 5.0 | 12.0 | 0.00 | 0.00 | 0.00 | 66 | 1012.9 |
| 20260506145830 | 64 | 179 | 4.0 | 12.0 | 0.00 | 0.00 | 0.00 | 67 | 1012.9 |
| 20260506145729 | 64 | 201 | 5.0 | 12.0 | 0.00 | 0.00 | 0.00 | 67 | 1012.9 |
| 20260506145630 | 64 | 200 | 4.0 | 12.0 | 0.00 | 0.00 | 0.00 | 66 | 1012.9 |
| 20260506145530 | 64 | 265 | 6.0 | 12.0 | 0.00 | 0.00 | 0.00 | 66 | 1012.8 |
| 20260506145500 | 64 | 200 | 7.0 | 12.0 | 0.00 | 0.00 | 0.00 | 66 | 1012.8 |
| 20260506145449 | 64 | 174 | 5.0 | 12.0 | 0.00 | 0.00 | 0.00 | 66 | 1012.8 |
| 20260506145129 | 64 | 209 | 4.0 | 12.0 | 0.00 | 0.00 | 0.00 | 66 | 1012.9 |
| 20260506145031 | 64 | 175 | 4.0 | 12.0 | 0.00 | 0.00 | 0.00 | 66 | 1012.8 |
| 20260506144948 | 64 | 175 | 3.0 | 9.0 | 0.00 | 0.00 | 0.00 | 66 | 1012.9 |
| 20260506144830 | 64 | 186 | 4.0 | 9.0 | 0.00 | 0.00 | 0.00 | 66 | 1012.9 |
| 20260506144814 | 64 | 279 | 4.0 | 9.0 | 0.00 | 0.00 | 0.00 | 66 | 1013.0 |
| 20260506144751 | 64 | 241 | 3.0 | 9.0 | 0.00 | 0.00 | 0.00 | 66 | 1012.9 |
| 20260506144430 | 64 | 246 | 2.0 | 6.0 | 0.00 | 0.00 | 0.00 | 66 | 1012.9 |
| 20260506144329 | 64 | 236 | 3.0 | 6.0 | 0.00 | 0.00 | 0.00 | 66 | 1012.9 |
| 20260506144229 | 64 | 155 | 3.0 | 10.0 | 0.00 | 0.00 | 0.00 | 66 | 1012.8 |
| 20260506144130 | 64 | 257 | 2.0 | 10.0 | 0.00 | 0.00 | 0.00 | 66 | 1012.9 |
| 20260506144030 | 64 | 254 | 3.0 | 10.0 | 0.00 | 0.00 | 0.00 | 66 | 1012.8 |
| 20260506143933 | 64 | 151 | 3.0 | 10.0 | 0.00 | 0.00 | 0.00 | 66 | 1012.8 |
| 20260506143829 | 64 | 250 | 3.0 | 10.0 | 0.00 | 0.00 | 0.00 | 66 | 1012.8 |
| 20260506143728 | 64 | 209 | 3.0 | 10.0 | 0.00 | 0.00 | 0.00 | 66 | 1012.8 |
| 20260506143702 | 64 | 157 | 3.0 | 10.0 | 0.00 | 0.00 | 0.00 | 66 | 1012.8 |
| 20260506143646 | 64 | 197 | 4.0 | 10.0 | 0.00 | 0.00 | 0.00 | 66 | 1012.8 |
| 20260506143326 | 64 | 139 | 4.0 | 10.0 | 0.00 | 0.00 | 0.00 | 65 | 1012.8 |
| 20260506143226 | 64 | 223 | 4.0 | 9.0 | 0.00 | 0.00 | 0.00 | 66 | 1012.8 |
| 20260506143124 | 64 | 214 | 4.0 | 9.0 | 0.00 | 0.00 | 0.00 | 65 | 1012.8 |
| 20260506143023 | 64 | 238 | 5.0 | 9.0 | 0.00 | 0.00 | 0.00 | 65 | 1012.8 |
| 20260506142923 | 64 | 179 | 5.0 | 9.0 | 0.00 | 0.00 | 0.00 | 65 | 1012.8 |
| 20260506142822 | 64 | 152 | 4.0 | 9.0 | 0.00 | 0.00 | 0.00 | 65 | 1012.8 |
| 20260506142722 | 64 | 202 | 3.0 | 9.0 | 0.00 | 0.00 | 0.00 | 65 | 1012.8 |
| 20260506142621 | 64 | 169 | 4.0 | 9.0 | 0.00 | 0.00 | 0.00 | 65 | 1012.8 |
| 20260506142521 | 64 | 186 | 3.0 | 9.0 | 0.00 | 0.00 | 0.00 | 65 | 1012.7 |
| 20260506142422 | 64 | 180 | 2.0 | 9.0 | 0.00 | 0.00 | 0.00 | 65 | 1012.7 |
| 20260506142319 | 64 | 153 | 2.0 | 7.0 | 0.00 | 0.00 | 0.00 | 65 | 1012.7 |
| 20260506142245 | 64 | 257 | 3.0 | 7.0 | 0.00 | 0.00 | 0.00 | 65 | 1012.7 |
| 20260506142220 | 64 | 250 | 4.0 | 7.0 | 0.00 | 0.00 | 0.00 | 65 | 1012.6 |
| 20260506142209 | 64 | 199 | 3.0 | 7.0 | 0.00 | 0.00 | 0.00 | 64 | 1012.6 |
| 20260506141858 | 64 | 209 | 4.0 | 7.0 | 0.00 | 0.00 | 0.00 | 65 | 1012.6 |
| 20260506141846 | 64 | 202 | 3.0 | 7.0 | 0.00 | 0.00 | 0.00 | 64 | 1012.7 |
| 20260506141514 | 64 | 249 | 2.0 | 7.0 | 0.00 | 0.00 | 0.00 | 65 | 1012.6 |
| 20260506141413 | 64 | 200 | 2.0 | 7.0 | 0.00 | 0.00 | 0.00 | 65 | 1012.6 |
| 20260506141317 | 64 | 192 | 2.0 | 7.0 | 0.00 | 0.00 | 0.00 | 65 | 1012.6 |
| 20260506141212 | 64 | 257 | 2.0 | 7.0 | 0.00 | 0.00 | 0.00 | 65 | 1012.6 |
| 20260506141111 | 64 | 258 | 3.0 | 7.0 | 0.00 | 0.00 | 0.00 | 65 | 1012.5 |
| 20260506141011 | 64 | 295 | 3.0 | 7.0 | 0.00 | 0.00 | 0.00 | 65 | 1012.5 |
| 20260506140910 | 64 | 274 | 2.0 | 7.0 | 0.00 | 0.00 | 0.00 | 65 | 1012.6 |
| 20260506140810 | 64 | 194 | 3.0 | 7.0 | 0.00 | 0.00 | 0.00 | 66 | 1012.5 |
| 20260506140709 | 64 | 217 | 3.0 | 7.0 | 0.00 | 0.00 | 0.00 | 66 | 1012.5 |
| 20260506140611 | 64 | 226 | 3.0 | 7.0 | 0.00 | 0.00 | 0.00 | 66 | 1012.5 |
| 20260506140507 | 64 | 198 | 2.0 | 7.0 | 0.00 | 0.00 | 0.00 | 66 | 1012.5 |
| 20260506140402 | 63 | 188 | 4.0 | 7.0 | 0.00 | 0.00 | 0.00 | 66 | 1012.5 |
| 20260506140301 | 63 | 239 | 4.0 | 7.0 | 0.00 | 0.00 | 0.00 | 66 | 1012.5 |
| 20260506140207 | 63 | 200 | 3.0 | 7.0 | 0.00 | 0.00 | 0.00 | 66 | 1012.5 |
| 20260506140137 | 63 | 223 | 3.0 | 7.0 | 0.00 | 0.00 | 0.00 | 66 | 1012.5 |
| 20260506140123 | 63 | 180 | 3.0 | 7.0 | 0.00 | 0.00 | 0.00 | 67 | 1012.4 |
| 20260506135829 | 63 | 234 | 2.0 | 7.0 | 0.00 | 0.00 | 0.00 | 67 | 1012.4 |
| 20260506135815 | 63 | 251 | 2.0 | 6.0 | 0.00 | 0.00 | 0.00 | 67 | 1012.5 |
| 20260506135753 | 63 | 241 | 1.0 | 6.0 | 0.00 | 0.00 | 0.00 | 67 | 1012.4 |
| 20260506135521 | 63 | 248 | 1.0 | 5.0 | 0.00 | 0.00 | 0.00 | 67 | 1012.4 |
| 20260506135243 | 63 | 48 | 1.0 | 5.0 | 0.00 | 0.00 | 0.00 | 67 | 1012.4 |
| 20260506135219 | 63 | 167 | 1.0 | 8.0 | 0.00 | 0.00 | 0.00 | 67 | 1012.4 |
| 20260506134900 | 63 | 188 | 1.0 | 8.0 | 0.00 | 0.00 | 0.00 | 68 | 1012.4 |
| 20260506134800 | 62 | 188 | 2.0 | 8.0 | 0.00 | 0.00 | 0.00 | 67 | 1012.3 |
| 20260506134719 | 62 | 199 | 2.0 | 8.0 | 0.00 | 0.00 | 0.00 | 67 | 1012.3 |
| 20260506134654 | 62 | 212 | 2.0 | 8.0 | 0.00 | 0.00 | 0.00 | 67 | 1012.4 |
| 20260506134642 | 62 | 207 | 3.0 | 8.0 | 0.00 | 0.00 | 0.00 | 67 | 1012.4 |
| 20260506134407 | 62 | 169 | 3.0 | 8.0 | 0.00 | 0.00 | 0.00 | 67 | 1012.3 |
| 20260506134355 | 62 | 189 | 2.0 | 7.0 | 0.00 | 0.00 | 0.00 | 67 | 1012.3 |
| 20260506134109 | 62 | 269 | 2.0 | 5.0 | 0.00 | 0.00 | 0.00 | 67 | 1012.3 |
| 20260506133829 | 62 | 246 | 2.0 | 5.0 | 0.00 | 0.00 | 0.00 | 67 | 1012.3 |
| 20260506133817 | 62 | 171 | 3.0 | 5.0 | 0.00 | 0.00 | 0.00 | 67 | 1012.3 |
| 20260506133446 | 62 | 182 | 2.0 | 5.0 | 0.00 | 0.00 | 0.00 | 66 | 1012.2 |
| 20260506133345 | 62 | 240 | 2.0 | 8.0 | 0.00 | 0.00 | 0.00 | 67 | 1012.2 |
| 20260506133244 | 62 | 202 | 2.0 | 8.0 | 0.00 | 0.00 | 0.00 | 66 | 1012.2 |
| 20260506133151 | 62 | 275 | 2.0 | 8.0 | 0.00 | 0.00 | 0.00 | 66 | 1012.2 |
| 20260506133113 | 62 | 185 | 1.0 | 8.0 | 0.00 | 0.00 | 0.00 | 66 | 1012.2 |
| 20260506133102 | 62 | 205 | 2.0 | 8.0 | 0.00 | 0.00 | 0.00 | 66 | 1012.2 |
| 20260506132742 | 62 | 208 | 1.0 | 8.0 | 0.00 | 0.00 | 0.00 | 66 | 1012.2 |
| 20260506132648 | 62 | 234 | 1.0 | 8.0 | 0.00 | 0.00 | 0.00 | 66 | 1012.2 |
| 20260506132541 | 62 | 179 | 2.0 | 8.0 | 0.00 | 0.00 | 0.00 | 66 | 1012.1 |
| 20260506132513 | 62 | 246 | 3.0 | 8.0 | 0.00 | 0.00 | 0.00 | 66 | 1012.1 |
| 20260506132459 | 62 | 270 | 2.0 | 6.0 | 0.00 | 0.00 | 0.00 | 66 | 1012.1 |
| 20260506132147 | 62 | 207 | 2.0 | 5.0 | 0.00 | 0.00 | 0.00 | 66 | 1012.1 |
| 20260506132036 | 62 | 215 | 2.0 | 5.0 | 0.00 | 0.00 | 0.00 | 66 | 1012.1 |
| 20260506132000 | 62 | 166 | 2.0 | 5.0 | 0.00 | 0.00 | 0.00 | 66 | 1012.1 |
| 20260506131948 | 62 | 238 | 2.0 | 5.0 | 0.00 | 0.00 | 0.00 | 66 | 1012.0 |
| 20260506131937 | 62 | 269 | 2.0 | 5.0 | 0.00 | 0.00 | 0.00 | 66 | 1012.0 |
| 20260506131606 | 62 | 234 | 2.0 | 5.0 | 0.00 | 0.00 | 0.00 | 66 | 1012.1 |
| 20260506131552 | 62 | 219 | 2.0 | 5.0 | 0.00 | 0.00 | 0.00 | 66 | 1012.0 |
| 20260506131257 | 62 | 124 | 1.0 | 5.0 | 0.00 | 0.00 | 0.00 | 66 | 1012.0 |
| 20260506131233 | 62 | 198 | 2.0 | 5.0 | 0.00 | 0.00 | 0.00 | 66 | 1012.0 |
| 20260506131224 | 62 | 156 | 2.0 | 5.0 | 0.00 | 0.00 | 0.00 | 66 | 1012.0 |
| 20260506131211 | 62 | 132 | 2.0 | 5.0 | 0.00 | 0.00 | 0.00 | 66 | 1012.0 |
| 20260506130629 | 62 | 158 | 1.0 | 5.0 | 0.00 | 0.00 | 0.00 | 66 | 1012.0 |
| 20260506130529 | 62 | 137 | 0.0 | 2.0 | 0.00 | 0.00 | 0.00 | 66 | 1011.9 |
| 20260506130450 | 62 | 135 | 0.0 | 3.0 | 0.00 | 0.00 | 0.00 | 66 | 1011.9 |
| 20260506130438 | 62 | 123 | 1.0 | 3.0 | 0.00 | 0.00 | 0.00 | 66 | 1011.9 |
| 20260506130425 | 62 | 223 | 1.0 | 3.0 | 0.00 | 0.00 | 0.00 | 66 | 1011.9 |
| 20260506130143 | 62 | 204 | 1.0 | 3.0 | 0.00 | 0.00 | 0.00 | 66 | 1011.9 |
| 20260506125817 | 62 | 46 | 0.0 | 3.0 | 0.00 | 0.00 | 0.00 | 66 | 1011.8 |
| 20260506125711 | 62 | 46 | 1.0 | 3.0 | 0.00 | 0.00 | 0.00 | 66 | 1011.9 |
| 20260506125610 | 62 | 112 | 1.0 | 4.0 | 0.00 | 0.00 | 0.00 | 65 | 1011.8 |
| 20260506125513 | 62 | 109 | 1.0 | 5.0 | 0.00 | 0.00 | 0.00 | 65 | 1011.8 |
| 20260506125439 | 62 | 275 | 1.0 | 5.0 | 0.00 | 0.00 | 0.00 | 65 | 1011.8 |
| 20260506125429 | 62 | 263 | 0.0 | 5.0 | 0.00 | 0.00 | 0.00 | 65 | 1011.8 |
| 20260506125108 | 62 | 184 | 0.0 | 5.0 | 0.00 | 0.00 | 0.00 | 65 | 1011.8 |
| 20260506125008 | 62 | 184 | 0.0 | 5.0 | 0.00 | 0.00 | 0.00 | 65 | 1011.8 |
| 20260506124911 | 62 | 184 | 2.0 | 5.0 | 0.00 | 0.00 | 0.00 | 65 | 1011.7 |
| 20260506124805 | 62 | 157 | 2.0 | 5.0 | 0.00 | 0.00 | 0.00 | 65 | 1011.7 |
| 20260506124704 | 62 | 198 | 2.0 | 5.0 | 0.00 | 0.00 | 0.00 | 65 | 1011.7 |
| 20260506124601 | 62 | 159 | 1.0 | 4.0 | 0.00 | 0.00 | 0.00 | 65 | 1011.7 |
| 20260506124505 | 62 | 205 | 0.0 | 4.0 | 0.00 | 0.00 | 0.00 | 65 | 1011.7 |
| 20260506124403 | 62 | 64 | 0.0 | 4.0 | 0.00 | 0.00 | 0.00 | 66 | 1011.7 |
| 20260506124305 | 62 | 249 | 1.0 | 4.0 | 0.00 | 0.00 | 0.00 | 66 | 1011.7 |
| 20260506124203 | 62 | 249 | 0.0 | 4.0 | 0.00 | 0.00 | 0.00 | 66 | 1011.7 |
| 20260506124104 | 62 | 211 | 1.0 | 4.0 | 0.00 | 0.00 | 0.00 | 66 | 1011.7 |
| 20260506124000 | 62 | 128 | 2.0 | 4.0 | 0.00 | 0.00 | 0.00 | 66 | 1011.7 |
| 20260506123906 | 62 | 232 | 2.0 | 4.0 | 0.00 | 0.00 | 0.00 | 66 | 1011.7 |
| 20260506123800 | 62 | 292 | 1.0 | 4.0 | 0.00 | 0.00 | 0.00 | 66 | 1011.7 |
| 20260506123705 | 62 | 171 | 1.0 | 4.0 | 0.00 | 0.00 | 0.00 | 66 | 1011.7 |
| 20260506123602 | 62 | 171 | 1.0 | 3.0 | 0.00 | 0.00 | 0.00 | 66 | 1011.7 |
| 20260506123502 | 62 | 128 | 0.0 | 3.0 | 0.00 | 0.00 | 0.00 | 66 | 1011.7 |
| 20260506123402 | 62 | 351 | 0.0 | 3.0 | 0.00 | 0.00 | 0.00 | 66 | 1011.7 |
| 20260506123302 | 62 | 297 | 1.0 | 5.0 | 0.00 | 0.00 | 0.00 | 66 | 1011.7 |
| 20260506123202 | 62 | 178 | 1.0 | 5.0 | 0.00 | 0.00 | 0.00 | 66 | 1011.7 |
| 20260506123102 | 62 | 115 | 1.0 | 5.0 | 0.00 | 0.00 | 0.00 | 66 | 1011.7 |
| 20260506123003 | 62 | 352 | 1.0 | 5.0 | 0.00 | 0.00 | 0.00 | 67 | 1011.7 |
| 20260506122901 | 62 | 0 | 1.0 | 5.0 | 0.00 | 0.00 | 0.00 | 67 | 1011.7 |
| 20260506122802 | 62 | 109 | 1.0 | 5.0 | 0.00 | 0.00 | 0.00 | 66 | 1011.6 |
| 20260506122702 | 62 | 38 | 1.0 | 5.0 | 0.00 | 0.00 | 0.00 | 66 | 1011.7 |
| 20260506122606 | 62 | 38 | 1.0 | 5.0 | 0.00 | 0.00 | 0.00 | 66 | 1011.6 |
| 20260506122552 | 62 | 186 | 1.0 | 5.0 | 0.00 | 0.00 | 0.00 | 66 | 1011.6 |
| 20260506122540 | 62 | 243 | 1.0 | 5.0 | 0.00 | 0.00 | 0.00 | 66 | 1011.5 |
| 20260506122530 | 62 | 207 | 1.0 | 5.0 | 0.00 | 0.00 | 0.00 | 66 | 1011.6 |
| 20260506122516 | 62 | 124 | 2.0 | 5.0 | 0.00 | 0.00 | 0.00 | 66 | 1011.5 |
| 20260506122231 | 63 | 258 | 3.0 | 5.0 | 0.00 | 0.00 | 0.00 | 66 | 1011.5 |
| 20260506122219 | 63 | 218 | 2.0 | 5.0 | 0.00 | 0.00 | 0.00 | 66 | 1011.4 |
| 20260506121948 | 63 | 199 | 2.0 | 6.0 | 0.00 | 0.00 | 0.00 | 66 | 1011.4 |
| 20260506121925 | 63 | 220 | 2.0 | 6.0 | 0.00 | 0.00 | 0.00 | 65 | 1011.3 |
| 20260506121914 | 63 | 200 | 2.0 | 10.0 | 0.00 | 0.00 | 0.00 | 65 | 1011.3 |
| 20260506121901 | 63 | 186 | 2.0 | 10.0 | 0.00 | 0.00 | 0.00 | 65 | 1011.3 |
| 20260506121820 | 63 | 167 | 2.0 | 10.0 | 0.00 | 0.00 | 0.00 | 65 | 1011.3 |
| 20260506121808 | 63 | 190 | 2.0 | 10.0 | 0.00 | 0.00 | 0.00 | 65 | 1011.2 |
| 20260506121306 | 63 | 170 | 2.0 | 10.0 | 0.00 | 0.00 | 0.00 | 65 | 1011.3 |
| 20260506121035 | 63 | 188 | 3.0 | 10.0 | 0.00 | 0.00 | 0.00 | 64 | 1011.2 |
| 20260506120530 | 63 | 172 | 2.0 | 6.0 | 0.00 | 0.00 | 0.00 | 65 | 1011.2 |
| 20260506120519 | 63 | 269 | 2.0 | 6.0 | 0.00 | 0.00 | 0.00 | 65 | 1011.2 |
| 20260506120234 | 63 | 234 | 2.0 | 6.0 | 0.00 | 0.00 | 0.00 | 65 | 1011.2 |
| 20260506120221 | 63 | 197 | 2.0 | 6.0 | 0.00 | 0.00 | 0.00 | 65 | 1011.1 |
| 20260506120209 | 63 | 191 | 2.0 | 5.0 | 0.00 | 0.00 | 0.00 | 65 | 1011.1 |
| 20260506115937 | 63 | 163 | 1.0 | 4.0 | 0.00 | 0.00 | 0.00 | 65 | 1011.1 |
| 20260506115654 | 63 | 224 | 2.0 | 4.0 | 0.00 | 0.00 | 0.00 | 65 | 1011.1 |
| 20260506115642 | 63 | 214 | 1.0 | 4.0 | 0.00 | 0.00 | 0.00 | 65 | 1011.0 |
| 20260506115105 | 63 | 234 | 2.0 | 4.0 | 0.00 | 0.00 | 0.00 | 66 | 1011.0 |
| 20260506115002 | 63 | 232 | 2.0 | 4.0 | 0.00 | 0.00 | 0.00 | 65 | 1011.0 |
| 20260506114903 | 63 | 233 | 1.0 | 5.0 | 0.00 | 0.00 | 0.00 | 66 | 1011.0 |
| 20260506114801 | 63 | 244 | 1.0 | 5.0 | 0.00 | 0.00 | 0.00 | 66 | 1011.0 |
| 20260506114730 | 63 | 240 | 1.0 | 5.0 | 0.00 | 0.00 | 0.00 | 66 | 1011.0 |
| 20260506114714 | 63 | 244 | 1.0 | 5.0 | 0.00 | 0.00 | 0.00 | 66 | 1011.0 |
| 20260506114649 | 63 | 180 | 1.0 | 5.0 | 0.00 | 0.00 | 0.00 | 66 | 1011.0 |
| 20260506114638 | 63 | 159 | 1.0 | 5.0 | 0.00 | 0.00 | 0.00 | 66 | 1011.0 |
| 20260506114629 | 63 | 188 | 1.0 | 6.0 | 0.00 | 0.00 | 0.00 | 66 | 1011.0 |
| 20260506114618 | 63 | 236 | 2.0 | 6.0 | 0.00 | 0.00 | 0.00 | 66 | 1011.0 |
| 20260506113802 | 63 | 223 | 0.0 | 9.0 | 0.00 | 0.00 | 0.00 | 67 | 1010.9 |
| 20260506113700 | 63 | 215 | 1.0 | 9.0 | 0.00 | 0.00 | 0.00 | 67 | 1010.9 |
| 20260506113610 | 63 | 239 | 3.0 | 9.0 | 0.00 | 0.00 | 0.00 | 68 | 1010.9 |
| 20260506113501 | 63 | 239 | 2.0 | 9.0 | 0.00 | 0.00 | 0.00 | 67 | 1010.9 |
| 20260506113401 | 63 | 268 | 2.0 | 9.0 | 0.00 | 0.00 | 0.00 | 68 | 1010.9 |
| 20260506113300 | 63 | 232 | 3.0 | 9.0 | 0.00 | 0.00 | 0.00 | 68 | 1010.8 |
| 20260506113207 | 63 | 208 | 2.0 | 9.0 | 0.00 | 0.00 | 0.00 | 68 | 1010.9 |
| 20260506113146 | 62 | 210 | 2.0 | 9.0 | 0.00 | 0.00 | 0.00 | 69 | 1010.9 |
| 20260506113124 | 62 | 236 | 3.0 | 9.0 | 0.00 | 0.00 | 0.00 | 69 | 1010.9 |
| 20260506112801 | 62 | 175 | 2.0 | 6.0 | 0.00 | 0.00 | 0.00 | 69 | 1010.9 |
| 20260506112701 | 62 | 227 | 2.0 | 7.0 | 0.00 | 0.00 | 0.00 | 69 | 1010.9 |
| 20260506112606 | 62 | 240 | 2.0 | 7.0 | 0.00 | 0.00 | 0.00 | 69 | 1010.9 |
| 20260506112505 | 62 | 270 | 2.0 | 7.0 | 0.00 | 0.00 | 0.00 | 69 | 1010.8 |
| 20260506112435 | 62 | 204 | 2.0 | 7.0 | 0.00 | 0.00 | 0.00 | 69 | 1010.9 |
| 20260506112424 | 62 | 206 | 1.0 | 7.0 | 0.00 | 0.00 | 0.00 | 69 | 1010.9 |
| 20260506112108 | 63 | 188 | 1.0 | 7.0 | 0.00 | 0.00 | 0.00 | 69 | 1010.9 |
| 20260506112001 | 62 | 165 | 1.0 | 7.0 | 0.00 | 0.00 | 0.00 | 69 | 1010.8 |
| 20260506111902 | 62 | 184 | 2.0 | 7.0 | 0.00 | 0.00 | 0.00 | 69 | 1010.9 |
| 20260506111814 | 63 | 183 | 2.0 | 7.0 | 0.00 | 0.00 | 0.00 | 69 | 1010.9 |
| 20260506111701 | 63 | 171 | 2.0 | 7.0 | 0.00 | 0.00 | 0.00 | 69 | 1010.8 |
| 20260506111606 | 63 | 246 | 2.0 | 7.0 | 0.00 | 0.00 | 0.00 | 69 | 1010.9 |
| 20260506111501 | 63 | 186 | 2.0 | 7.0 | 0.00 | 0.00 | 0.00 | 69 | 1010.8 |
| 20260506111430 | 63 | 215 | 3.0 | 8.0 | 0.00 | 0.00 | 0.00 | 69 | 1010.9 |
| 20260506111419 | 63 | 244 | 2.0 | 8.0 | 0.00 | 0.00 | 0.00 | 69 | 1010.9 |
| 20260506111406 | 63 | 150 | 2.0 | 8.0 | 0.00 | 0.00 | 0.00 | 69 | 1010.9 |
| 20260506111352 | 63 | 213 | 2.0 | 8.0 | 0.00 | 0.00 | 0.00 | 68 | 1010.8 |
| 20260506110803 | 63 | 238 | 3.0 | 8.0 | 0.00 | 0.00 | 0.00 | 68 | 1010.9 |
| 20260506110700 | 63 | 217 | 3.0 | 8.0 | 0.00 | 0.00 | 0.00 | 68 | 1010.9 |
| 20260506110603 | 63 | 186 | 2.0 | 8.0 | 0.00 | 0.00 | 0.00 | 68 | 1010.8 |
| 20260506110503 | 63 | 239 | 0.0 | 8.0 | 0.00 | 0.00 | 0.00 | 68 | 1010.9 |
| 20260506110403 | 63 | 200 | 1.0 | 8.0 | 0.00 | 0.00 | 0.00 | 68 | 1010.9 |
| 20260506110302 | 63 | 269 | 1.0 | 8.0 | 0.00 | 0.00 | 0.00 | 68 | 1010.9 |
| 20260506110203 | 63 | 266 | 2.0 | 8.0 | 0.00 | 0.00 | 0.00 | 68 | 1010.9 |
| 20260506110002 | 63 | 202 | 2.0 | 8.0 | 0.00 | 0.00 | 0.00 | 68 | 1010.8 |
| 20260506105900 | 63 | 185 | 2.0 | 8.0 | 0.00 | 0.00 | 0.00 | 68 | 1010.8 |
| 20260506105801 | 63 | 211 | 2.0 | 8.0 | 0.00 | 0.00 | 0.00 | 68 | 1010.8 |
| 20260506105701 | 63 | 232 | 2.0 | 8.0 | 0.00 | 0.00 | 0.00 | 68 | 1010.8 |
| 20260506105601 | 63 | 159 | 3.0 | 8.0 | 0.00 | 0.00 | 0.00 | 68 | 1010.8 |
| 20260506105503 | 63 | 227 | 2.0 | 8.0 | 0.00 | 0.00 | 0.00 | 68 | 1010.8 |
| 20260506105432 | 63 | 206 | 2.0 | 6.0 | 0.00 | 0.00 | 0.00 | 68 | 1010.8 |
| 20260506105421 | 63 | 251 | 2.0 | 6.0 | 0.00 | 0.00 | 0.00 | 68 | 1010.7 |
| 20260506105409 | 63 | 251 | 3.0 | 6.0 | 0.00 | 0.00 | 0.00 | 68 | 1010.7 |
| 20260506105122 | 63 | 251 | 2.0 | 6.0 | 0.00 | 0.00 | 0.00 | 68 | 1010.7 |
| 20260506104800 | 63 | 242 | 1.0 | 6.0 | 0.00 | 0.00 | 0.00 | 68 | 1010.7 |
| 20260506104703 | 63 | 227 | 1.0 | 5.0 | 0.00 | 0.00 | 0.00 | 68 | 1010.7 |
| 20260506104601 | 63 | 186 | 1.0 | 5.0 | 0.00 | 0.00 | 0.00 | 68 | 1010.7 |
| 20260506104504 | 63 | 184 | 2.0 | 7.0 | 0.00 | 0.00 | 0.00 | 68 | 1010.7 |
| 20260506104402 | 63 | 193 | 2.0 | 7.0 | 0.00 | 0.00 | 0.00 | 68 | 1010.6 |
| 20260506104302 | 63 | 229 | 2.0 | 7.0 | 0.00 | 0.00 | 0.00 | 68 | 1010.6 |
| 20260506104200 | 63 | 182 | 1.0 | 7.0 | 0.00 | 0.00 | 0.00 | 68 | 1010.6 |
| 20260506104059 | 63 | 198 | 1.0 | 7.0 | 0.00 | 0.00 | 0.00 | 68 | 1010.6 |
| 20260506103959 | 63 | 190 | 1.0 | 7.0 | 0.00 | 0.00 | 0.00 | 68 | 1010.6 |
| 20260506103858 | 63 | 209 | 1.0 | 7.0 | 0.00 | 0.00 | 0.00 | 68 | 1010.6 |
| 20260506103758 | 63 | 215 | 2.0 | 7.0 | 0.00 | 0.00 | 0.00 | 68 | 1010.6 |
| 20260506103658 | 63 | 214 | 2.0 | 7.0 | 0.00 | 0.00 | 0.00 | 68 | 1010.6 |
| 20260506103558 | 63 | 235 | 2.0 | 7.0 | 0.00 | 0.00 | 0.00 | 68 | 1010.6 |
| 20260506103456 | 63 | 296 | 2.0 | 6.0 | 0.00 | 0.00 | 0.00 | 68 | 1010.6 |
| 20260506103355 | 63 | 149 | 2.0 | 8.0 | 0.00 | 0.00 | 0.00 | 68 | 1010.5 |
| 20260506103331 | 63 | 229 | 1.0 | 8.0 | 0.00 | 0.00 | 0.00 | 68 | 1010.6 |
| 20260506103314 | 63 | 197 | 1.0 | 8.0 | 0.00 | 0.00 | 0.00 | 68 | 1010.6 |
| 20260506102953 | 63 | 207 | 3.0 | 8.0 | 0.00 | 0.00 | 0.00 | 68 | 1010.7 |
| 20260506102854 | 63 | 188 | 2.0 | 8.0 | 0.00 | 0.00 | 0.00 | 68 | 1010.6 |
| 20260506102746 | 63 | 185 | 1.0 | 8.0 | 0.00 | 0.00 | 0.00 | 68 | 1010.6 |
| 20260506102726 | 64 | 261 | 3.0 | 8.0 | 0.00 | 0.00 | 0.00 | 68 | 1010.6 |
| 20260506102714 | 64 | 166 | 3.0 | 8.0 | 0.00 | 0.00 | 0.00 | 68 | 1010.6 |
| 20260506102338 | 64 | 147 | 3.0 | 7.0 | 0.00 | 0.00 | 0.00 | 68 | 1010.6 |
| 20260506102236 | 64 | 214 | 2.0 | 7.0 | 0.00 | 0.00 | 0.00 | 68 | 1010.6 |
| 20260506102136 | 64 | 192 | 3.0 | 7.0 | 0.00 | 0.00 | 0.00 | 68 | 1010.6 |
| 20260506102053 | 64 | 219 | 4.0 | 7.0 | 0.00 | 0.00 | 0.00 | 68 | 1010.6 |
| 20260506102026 | 64 | 233 | 4.0 | 8.0 | 0.00 | 0.00 | 0.00 | 68 | 1010.6 |
| 20260506102015 | 64 | 241 | 3.0 | 8.0 | 0.00 | 0.00 | 0.00 | 68 | 1010.7 |
| 20260506101743 | 64 | 178 | 2.0 | 8.0 | 0.00 | 0.00 | 0.00 | 67 | 1010.6 |
| 20260506101731 | 64 | 161 | 2.0 | 8.0 | 0.00 | 0.00 | 0.00 | 67 | 1010.6 |
| 20260506101345 | 64 | 208 | 2.0 | 8.0 | 0.00 | 0.00 | 0.00 | 67 | 1010.7 |
| 20260506101335 | 64 | 250 | 3.0 | 8.0 | 0.00 | 0.00 | 0.00 | 67 | 1010.6 |
| 20260506101321 | 64 | 202 | 3.0 | 8.0 | 0.00 | 0.00 | 0.00 | 67 | 1010.6 |
| 20260506101308 | 64 | 182 | 2.0 | 8.0 | 0.00 | 0.00 | 0.00 | 67 | 1010.5 |
| 20260506101244 | 64 | 169 | 1.0 | 6.0 | 0.00 | 0.00 | 0.00 | 67 | 1010.5 |
| 20260506101014 | 64 | 194 | 3.0 | 6.0 | 0.00 | 0.00 | 0.00 | 67 | 1010.5 |
| 20260506100430 | 64 | 168 | 2.0 | 5.0 | 0.00 | 0.00 | 0.00 | 67 | 1010.6 |
| 20260506100406 | 64 | 194 | 2.0 | 5.0 | 0.00 | 0.00 | 0.00 | 67 | 1010.5 |
| 20260506100355 | 64 | 153 | 3.0 | 5.0 | 0.00 | 0.00 | 0.00 | 67 | 1010.6 |
| 20260506100116 | 64 | 161 | 2.0 | 5.0 | 0.00 | 0.00 | 0.00 | 67 | 1010.6 |
| 20260506100053 | 64 | 170 | 2.0 | 5.0 | 0.00 | 0.00 | 0.00 | 66 | 1010.5 |
| 20260506095729 | 64 | 163 | 1.0 | 4.0 | 0.00 | 0.00 | 0.00 | 66 | 1010.5 |
| 20260506095631 | 64 | 210 | 2.0 | 4.0 | 0.00 | 0.00 | 0.00 | 66 | 1010.6 |
| 20260506095535 | 64 | 154 | 2.0 | 4.0 | 0.00 | 0.00 | 0.00 | 66 | 1010.5 |
| 20260506095432 | 64 | 197 | 2.0 | 4.0 | 0.00 | 0.00 | 0.00 | 66 | 1010.5 |
| 20260506095329 | 64 | 185 | 2.0 | 4.0 | 0.00 | 0.00 | 0.00 | 66 | 1010.5 |
| 20260506095232 | 64 | 207 | 1.0 | 4.0 | 0.00 | 0.00 | 0.00 | 66 | 1010.5 |
| 20260506095128 | 64 | 171 | 1.0 | 4.0 | 0.00 | 0.00 | 0.00 | 66 | 1010.6 |
| 20260506095033 | 64 | 211 | 1.0 | 4.0 | 0.00 | 0.00 | 0.00 | 66 | 1010.5 |
| 20260506094928 | 64 | 221 | 1.0 | 4.0 | 0.00 | 0.00 | 0.00 | 66 | 1010.5 |
| 20260506094832 | 64 | 192 | 1.0 | 4.0 | 0.00 | 0.00 | 0.00 | 66 | 1010.5 |
| 20260506094809 | 64 | 217 | 1.0 | 3.0 | 0.00 | 0.00 | 0.00 | 66 | 1010.5 |
| 20260506094756 | 64 | 180 | 1.0 | 3.0 | 0.00 | 0.00 | 0.00 | 66 | 1010.5 |
| 20260506094744 | 64 | 167 | 1.0 | 3.0 | 0.00 | 0.00 | 0.00 | 66 | 1010.5 |
| 20260506094720 | 64 | 138 | 1.0 | 3.0 | 0.00 | 0.00 | 0.00 | 66 | 1010.5 |
| 20260506094453 | 65 | 256 | 1.0 | 3.0 | 0.00 | 0.00 | 0.00 | 66 | 1010.5 |
| 20260506094153 | 65 | 196 | 1.0 | 4.0 | 0.00 | 0.00 | 0.00 | 66 | 1010.5 |
| 20260506093821 | 65 | 198 | 1.0 | 5.0 | 0.00 | 0.00 | 0.00 | 66 | 1010.4 |
| 20260506093721 | 65 | 194 | 0.0 | 5.0 | 0.00 | 0.00 | 0.00 | 65 | 1010.4 |
| 20260506093622 | 65 | 213 | 0.0 | 5.0 | 0.00 | 0.00 | 0.00 | 65 | 1010.4 |
| 20260506093529 | 65 | 186 | 1.0 | 5.0 | 0.00 | 0.00 | 0.00 | 65 | 1010.4 |
| 20260506093411 | 65 | 172 | 2.0 | 5.0 | 0.00 | 0.00 | 0.00 | 65 | 1010.4 |
| 20260506093309 | 65 | 265 | 2.0 | 5.0 | 0.00 | 0.00 | 0.00 | 65 | 1010.4 |
| 20260506093211 | 65 | 188 | 2.0 | 5.0 | 0.00 | 0.00 | 0.00 | 65 | 1010.4 |
| 20260506093149 | 65 | 213 | 3.0 | 7.0 | 0.00 | 0.00 | 0.00 | 65 | 1010.4 |
| 20260506093126 | 65 | 218 | 4.0 | 7.0 | 0.00 | 0.00 | 0.00 | 65 | 1010.3 |
| 20260506092808 | 65 | 183 | 2.0 | 8.0 | 0.00 | 0.00 | 0.00 | 65 | 1010.4 |
| 20260506092705 | 65 | 180 | 2.0 | 8.0 | 0.00 | 0.00 | 0.00 | 64 | 1010.4 |
| 20260506092607 | 65 | 165 | 2.0 | 8.0 | 0.00 | 0.00 | 0.00 | 64 | 1010.4 |
| 20260506092503 | 65 | 222 | 1.0 | 8.0 | 0.00 | 0.00 | 0.00 | 64 | 1010.3 |
| 20260506092403 | 65 | 198 | 3.0 | 8.0 | 0.00 | 0.00 | 0.00 | 64 | 1010.4 |
| 20260506092305 | 65 | 175 | 3.0 | 8.0 | 0.00 | 0.00 | 0.00 | 64 | 1010.3 |
| 20260506092205 | 65 | 185 | 4.0 | 8.0 | 0.00 | 0.00 | 0.00 | 64 | 1010.3 |
| 20260506092101 | 65 | 165 | 4.0 | 8.0 | 0.00 | 0.00 | 0.00 | 64 | 1010.3 |
| 20260506092002 | 65 | 276 | 3.0 | 8.0 | 0.00 | 0.00 | 0.00 | 64 | 1010.3 |
| 20260506091937 | 65 | 192 | 2.0 | 8.0 | 0.00 | 0.00 | 0.00 | 64 | 1010.3 |
| 20260506091923 | 65 | 157 | 2.0 | 8.0 | 0.00 | 0.00 | 0.00 | 64 | 1010.3 |
| 20260506091648 | 65 | 260 | 3.0 | 8.0 | 0.00 | 0.00 | 0.00 | 63 | 1010.4 |
| 20260506091624 | 65 | 195 | 2.0 | 8.0 | 0.00 | 0.00 | 0.00 | 63 | 1010.3 |
| 20260506091311 | 66 | 185 | 3.0 | 13.0 | 0.00 | 0.00 | 0.00 | 63 | 1010.3 |
| 20260506091229 | 66 | 197 | 3.0 | 13.0 | 0.00 | 0.00 | 0.00 | 63 | 1010.3 |
| 20260506091213 | 66 | 186 | 3.0 | 13.0 | 0.00 | 0.00 | 0.00 | 62 | 1010.3 |
| 20260506091150 | 66 | 245 | 3.0 | 13.0 | 0.00 | 0.00 | 0.00 | 62 | 1010.3 |
| 20260506091136 | 66 | 205 | 3.0 | 13.0 | 0.00 | 0.00 | 0.00 | 62 | 1010.4 |
| 20260506090906 | 66 | 207 | 4.0 | 13.0 | 0.00 | 0.00 | 0.00 | 62 | 1010.4 |
| 20260506090854 | 66 | 210 | 6.0 | 13.0 | 0.00 | 0.00 | 0.00 | 62 | 1010.4 |
| 20260506090300 | 66 | 279 | 3.0 | 8.0 | 0.00 | 0.00 | 0.00 | 62 | 1010.4 |
| 20260506090205 | 66 | 242 | 3.0 | 8.0 | 0.00 | 0.00 | 0.00 | 62 | 1010.3 |
| 20260506090101 | 66 | 238 | 4.0 | 8.0 | 0.00 | 0.00 | 0.00 | 61 | 1010.3 |
| 20260506090004 | 66 | 234 | 3.0 | 8.0 | 0.00 | 0.00 | 0.00 | 61 | 1010.3 |
| 20260506085901 | 66 | 292 | 1.0 | 8.0 | 0.00 | 0.00 | 0.00 | 61 | 1010.3 |
| 20260506085802 | 66 | 273 | 1.0 | 4.0 | 0.00 | 0.00 | 0.00 | 61 | 1010.3 |
| 20260506085706 | 66 | 244 | 1.0 | 4.0 | 0.00 | 0.00 | 0.00 | 61 | 1010.3 |
| 20260506085648 | 66 | 284 | 2.0 | 4.0 | 0.00 | 0.00 | 0.00 | 61 | 1010.2 |
| 20260506085636 | 66 | 259 | 2.0 | 4.0 | 0.00 | 0.00 | 0.00 | 61 | 1010.2 |
| 20260506085306 | 66 | 244 | 2.0 | 4.0 | 0.00 | 0.00 | 0.00 | 61 | 1010.2 |
| 20260506085203 | 66 | 306 | 1.0 | 4.0 | 0.00 | 0.00 | 0.00 | 61 | 1010.2 |
| 20260506085101 | 66 | 298 | 1.0 | 5.0 | 0.00 | 0.00 | 0.00 | 61 | 1010.2 |
| 20260506085013 | 66 | 318 | 2.0 | 5.0 | 0.00 | 0.00 | 0.00 | 61 | 1010.2 |
| 20260506084901 | 66 | 340 | 1.0 | 5.0 | 0.00 | 0.00 | 0.00 | 61 | 1010.3 |
| 20260506084804 | 66 | 286 | 1.0 | 5.0 | 0.00 | 0.00 | 0.00 | 62 | 1010.2 |
| 20260506084701 | 65 | 296 | 1.0 | 5.0 | 0.00 | 0.00 | 0.00 | 62 | 1010.2 |
| 20260506084619 | 65 | 236 | 1.0 | 5.0 | 0.00 | 0.00 | 0.00 | 62 | 1010.2 |
| 20260506084602 | 65 | 195 | 0.0 | 5.0 | 0.00 | 0.00 | 0.00 | 62 | 1010.2 |
| 20260506084401 | 65 | 312 | 1.0 | 5.0 | 0.00 | 0.00 | 0.00 | 63 | 1010.2 |
| 20260506084308 | 65 | 181 | 2.0 | 5.0 | 0.00 | 0.00 | 0.00 | 63 | 1010.2 |
| 20260506084203 | 65 | 253 | 1.0 | 5.0 | 0.00 | 0.00 | 0.00 | 63 | 1010.2 |
| 20260506084101 | 65 | 159 | 0.0 | 4.0 | 0.00 | 0.00 | 0.00 | 63 | 1010.1 |
| 20260506084009 | 65 | 126 | 1.0 | 6.0 | 0.00 | 0.00 | 0.00 | 64 | 1010.1 |
| 20260506083901 | 64 | 150 | 1.0 | 6.0 | 0.00 | 0.00 | 0.00 | 64 | 1010.2 |
| 20260506083802 | 64 | 150 | 1.0 | 6.0 | 0.00 | 0.00 | 0.00 | 64 | 1010.2 |
| 20260506083701 | 64 | 121 | 1.0 | 6.0 | 0.00 | 0.00 | 0.00 | 65 | 1010.2 |
| 20260506083555 | 64 | 144 | 1.0 | 6.0 | 0.00 | 0.00 | 0.00 | 65 | 1010.1 |
| 20260506083454 | 64 | 142 | 0.0 | 6.0 | 0.00 | 0.00 | 0.00 | 65 | 1010.2 |
| 20260506083331 | 64 | 174 | 0.0 | 6.0 | 0.00 | 0.00 | 0.00 | 66 | 1010.2 |
| 20260506083230 | 64 | 174 | 1.0 | 6.0 | 0.00 | 0.00 | 0.00 | 66 | 1010.1 |
| 20260506083131 | 64 | 185 | 1.0 | 6.0 | 0.00 | 0.00 | 0.00 | 65 | 1010.1 |
| 20260506083110 | 64 | 238 | 1.0 | 4.0 | 0.00 | 0.00 | 0.00 | 66 | 1010.1 |
| 20260506083049 | 64 | 224 | 2.0 | 4.0 | 0.00 | 0.00 | 0.00 | 67 | 1010.1 |
| 20260506082730 | 64 | 152 | 2.0 | 4.0 | 0.00 | 0.00 | 0.00 | 67 | 1010.1 |
| 20260506082653 | 64 | 134 | 2.0 | 3.0 | 0.00 | 0.00 | 0.00 | 67 | 1010.1 |
| 20260506082642 | 64 | 165 | 1.0 | 4.0 | 0.00 | 0.00 | 0.00 | 66 | 1010.2 |
| 20260506082619 | 64 | 352 | 1.0 | 4.0 | 0.00 | 0.00 | 0.00 | 66 | 1010.2 |
| 20260506082349 | 64 | 268 | 0.0 | 5.0 | 0.00 | 0.00 | 0.00 | 66 | 1010.2 |
| 20260506082032 | 64 | 270 | 1.0 | 5.0 | 0.00 | 0.00 | 0.00 | 66 | 1010.1 |
| 20260506082001 | 64 | 67 | 2.0 | 5.0 | 0.00 | 0.00 | 0.00 | 67 | 1010.1 |
| 20260506081948 | 64 | 44 | 2.0 | 5.0 | 0.00 | 0.00 | 0.00 | 66 | 1009.9 |
| 20260506081627 | 64 | 194 | 2.0 | 5.0 | 0.00 | 0.00 | 0.00 | 67 | 1010.2 |
| 20260506081530 | 64 | 22 | 2.0 | 5.0 | 0.00 | 0.00 | 0.00 | 67 | 1010.1 |
| 20260506081421 | 65 | 16 | 2.0 | 4.0 | 0.00 | 0.00 | 0.00 | 67 | 1009.9 |
| 20260506081324 | 65 | 67 | 2.0 | 4.0 | 0.00 | 0.00 | 0.00 | 67 | 1010.1 |
| 20260506081308 | 65 | 23 | 1.0 | 3.0 | 0.00 | 0.00 | 0.00 | 66 | 1010.1 |
| 20260506081255 | 65 | 235 | 1.0 | 3.0 | 0.00 | 0.00 | 0.00 | 66 | 1010.1 |
| 20260506080935 | 65 | 237 | 1.0 | 3.0 | 0.00 | 0.00 | 0.00 | 65 | 1009.9 |
| 20260506080923 | 65 | 104 | 2.0 | 3.0 | 0.00 | 0.00 | 0.00 | 66 | 1009.9 |
| 20260506080603 | 65 | 296 | 0.0 | 3.0 | 0.00 | 0.00 | 0.00 | 66 | 1009.9 |
| 20260506080503 | 65 | 299 | 0.0 | 3.0 | 0.00 | 0.00 | 0.00 | 66 | 1009.9 |
| 20260506080402 | 65 | 301 | 0.0 | 3.0 | 0.00 | 0.00 | 0.00 | 65 | 1010.1 |
| 20260506080302 | 65 | 304 | 1.0 | 3.0 | 0.00 | 0.00 | 0.00 | 66 | 1010.1 |
| 20260506080208 | 65 | 300 | 1.0 | 3.0 | 0.00 | 0.00 | 0.00 | 65 | 1010.1 |
| 20260506080147 | 66 | 300 | 1.0 | 3.0 | 0.00 | 0.00 | 0.00 | 65 | 1009.9 |
| 20260506080137 | 66 | 31 | 1.0 | 3.0 | 0.00 | 0.00 | 0.00 | 65 | 1009.9 |
| 20260506073503 | 67 | 9 | 0.0 | 4.0 | 0.00 | 0.00 | 0.00 | 63 | 1009.8 |
| 20260506073403 | 67 | 9 | 1.0 | 5.0 | 0.00 | 0.00 | 0.00 | 63 | 1009.8 |
| 20260506073302 | 67 | 9 | 1.0 | 5.0 | 0.00 | 0.00 | 0.00 | 63 | 1009.8 |
| 20260506073203 | 67 | 9 | 1.0 | 5.0 | 0.00 | 0.00 | 0.00 | 63 | 1009.8 |
| 20260506073102 | 67 | 352 | 2.0 | 5.0 | 0.00 | 0.00 | 0.00 | 63 | 1009.8 |
| 20260506073003 | 67 | 352 | 1.0 | 6.0 | 0.00 | 0.00 | 0.00 | 63 | 1009.8 |
| 20260506072935 | 67 | 16 | 1.0 | 6.0 | 0.00 | 0.00 | 0.00 | 63 | 1009.7 |
| 20260506072923 | 67 | 34 | 2.0 | 6.0 | 0.00 | 0.00 | 0.00 | 63 | 1009.8 |
| 20260506072602 | 67 | 352 | 4.0 | 6.0 | 0.00 | 0.00 | 0.00 | 63 | 1009.8 |
| 20260506072502 | 67 | 5 | 2.0 | 6.0 | 0.00 | 0.00 | 0.00 | 63 | 1009.8 |
| 20260506072401 | 67 | 9 | 2.0 | 6.0 | 0.00 | 0.00 | 0.00 | 63 | 1009.7 |
| 20260506072305 | 67 | 295 | 4.0 | 8.0 | 0.00 | 0.00 | 0.00 | 64 | 1009.8 |
| 20260506072237 | 66 | 260 | 4.0 | 8.0 | 0.00 | 0.00 | 0.00 | 64 | 1009.8 |
| 20260506072225 | 66 | 349 | 2.0 | 8.0 | 0.00 | 0.00 | 0.00 | 63 | 1009.7 |
| 20260506071902 | 66 | 259 | 0.0 | 8.0 | 0.00 | 0.00 | 0.00 | 64 | 1009.9 |
| 20260506071803 | 66 | 352 | 0.0 | 8.0 | 0.00 | 0.00 | 0.00 | 65 | 1009.8 |
| 20260506071702 | 66 | 352 | 1.0 | 8.0 | 0.00 | 0.00 | 0.00 | 64 | 1009.8 |
| 20260506071602 | 66 | 352 | 1.0 | 8.0 | 0.00 | 0.00 | 0.00 | 64 | 1009.8 |
| 20260506071503 | 66 | 352 | 4.0 | 8.0 | 0.00 | 0.00 | 0.00 | 65 | 1009.8 |
| 20260506071402 | 66 | 0 | 3.0 | 8.0 | 0.00 | 0.00 | 0.00 | 64 | 1009.8 |
| 20260506071303 | 66 | 352 | 2.0 | 5.0 | 0.00 | 0.00 | 0.00 | 64 | 1009.8 |
| 20260506071204 | 66 | 312 | 1.0 | 3.0 | 0.00 | 0.00 | 0.00 | 63 | 1009.8 |
| 20260506071127 | 66 | 12 | 1.0 | 3.0 | 0.00 | 0.00 | 0.00 | 63 | 1009.8 |
| 20260506071114 | 66 | 5 | 1.0 | 3.0 | 0.00 | 0.00 | 0.00 | 63 | 1009.8 |
| 20260506071053 | 66 | 266 | 1.0 | 3.0 | 0.00 | 0.00 | 0.00 | 63 | 1009.8 |
| 20260506070703 | 66 | 297 | 1.0 | 3.0 | 0.00 | 0.00 | 0.00 | 63 | 1009.8 |
| 20260506070602 | 66 | 310 | 1.0 | 3.0 | 0.00 | 0.00 | 0.00 | 63 | 1009.7 |
| 20260506070504 | 66 | 27 | 1.0 | 3.0 | 0.00 | 0.00 | 0.00 | 64 | 1009.7 |
| 20260506070401 | 66 | 27 | 0.0 | 3.0 | 0.00 | 0.00 | 0.00 | 63 | 1009.7 |
| 20260506070302 | 66 | 15 | 0.0 | 2.0 | 0.00 | 0.00 | 0.00 | 63 | 1009.7 |
| 20260506070203 | 66 | 348 | 0.0 | 3.0 | 0.00 | 0.00 | 0.00 | 62 | 1009.7 |
| 20260506062204 | 69 | 92 | 0.0 | 0.0 | 0.00 | 0.00 | 0.00 | 56 | 1009.4 |
| 20260506062107 | 69 | 92 | 0.0 | 0.0 | 0.00 | 0.00 | 0.00 | 56 | 1009.4 |
| 20260506062001 | 69 | 92 | 0.0 | 0.0 | 0.00 | 0.00 | 0.00 | 57 | 1009.4 |
| 20260506061902 | 69 | 92 | 0.0 | 0.0 | 0.00 | 0.00 | 0.00 | 56 | 1009.4 |
| 20260506061801 | 69 | 92 | 0.0 | 0.0 | 0.00 | 0.00 | 0.00 | 56 | 1009.4 |
| 20260506061702 | 69 | 92 | 0.0 | 0.0 | 0.00 | 0.00 | 0.00 | 56 | 1009.4 |
| 20260506061604 | 69 | 92 | 0.0 | 0.0 | 0.00 | 0.00 | 0.00 | 55 | 1009.4 |
| 20260506061503 | 69 | 92 | 0.0 | 0.0 | 0.00 | 0.00 | 0.00 | 55 | 1009.4 |
| 20260506061414 | 69 | 92 | 0.0 | 0.0 | 0.00 | 0.00 | 0.00 | 55 | 1009.4 |
| 20260506061305 | 69 | 92 | 0.0 | 0.0 | 0.00 | 0.00 | 0.00 | 55 | 1009.4 |
| 20260506061203 | 69 | 92 | 0.0 | 0.0 | 0.00 | 0.00 | 0.00 | 55 | 1009.4 |
| 20260506061103 | 69 | 92 | 0.0 | 0.0 | 0.00 | 0.00 | 0.00 | 56 | 1009.4 |
| 20260506061007 | 69 | 92 | 0.0 | 0.0 | 0.00 | 0.00 | 0.00 | 55 | 1009.4 |
| 20260506060914 | 69 | 92 | 0.0 | 0.0 | 0.00 | 0.00 | 0.00 | 56 | 1009.4 |
| 20260506060801 | 69 | 92 | 0.0 | 0.0 | 0.00 | 0.00 | 0.00 | 55 | 1009.4 |
| 20260506060704 | 69 | 92 | 0.0 | 0.0 | 0.00 | 0.00 | 0.00 | 55 | 1009.4 |
| 20260506060600 | 69 | 92 | 0.0 | 0.0 | 0.00 | 0.00 | 0.00 | 56 | 1009.4 |
| 20260506060506 | 69 | 92 | 0.0 | 0.0 | 0.00 | 0.00 | 0.00 | 56 | 1009.4 |
| 20260506060446 | 70 | 92 | 0.0 | 0.0 | 0.00 | 0.00 | 0.00 | 54 | 1009.5 |
| 20260506060424 | 70 | 92 | 0.0 | 0.0 | 0.00 | 0.00 | 0.00 | 54 | 1009.4 |
| 20260506060413 | 70 | 92 | 0.0 | 0.0 | 0.00 | 0.00 | 0.00 | 55 | 1009.4 |
| 20260506060143 | 70 | 92 | 0.0 | 0.0 | 0.00 | 0.00 | 0.00 | 55 | 1009.4 |
| 20260506060132 | 70 | 92 | 0.0 | 0.0 | 0.00 | 0.00 | 0.00 | 53 | 1009.4 |
| 20260506051333 | 70 | 123 | 1.0 | 2.0 | 0.00 | 0.00 | 0.00 | 52 | 1009.1 |
| 20260506051234 | 70 | 137 | 1.0 | 2.0 | 0.00 | 0.00 | 0.00 | 51 | 1009.1 |
| 20260506051136 | 70 | 148 | 0.0 | 2.0 | 0.00 | 0.00 | 0.00 | 51 | 1009.2 |
| 20260506051033 | 70 | 205 | 0.0 | 1.0 | 0.00 | 0.00 | 0.00 | 51 | 1009.2 |
| 20260506050929 | 70 | 216 | 0.0 | 2.0 | 0.00 | 0.00 | 0.00 | 52 | 1009.2 |
| 20260506050831 | 70 | 221 | 0.0 | 2.0 | 0.00 | 0.00 | 0.00 | 52 | 1009.2 |
| 20260506050729 | 70 | 221 | 0.0 | 2.0 | 0.00 | 0.00 | 0.00 | 51 | 1009.2 |
| 20260506050633 | 70 | 120 | 0.0 | 2.0 | 0.00 | 0.00 | 0.00 | 52 | 1009.2 |
| 20260506050529 | 70 | 120 | 0.0 | 2.0 | 0.00 | 0.00 | 0.00 | 51 | 1009.2 |
| 20260506050429 | 70 | 120 | 0.0 | 2.0 | 0.00 | 0.00 | 0.00 | 52 | 1009.2 |
| 20260506050329 | 70 | 120 | 0.0 | 2.0 | 0.00 | 0.00 | 0.00 | 52 | 1009.2 |
| 20260506050312 | 70 | 120 | 0.0 | 2.0 | 0.00 | 0.00 | 0.00 | 52 | 1009.2 |
| 20260506050301 | 70 | 120 | 0.0 | 2.0 | 0.00 | 0.00 | 0.00 | 52 | 1009.2 |
| 20260506045129 | 71 | 176 | 0.0 | 0.0 | 0.00 | 0.00 | 0.00 | 52 | 1009.2 |
| 20260506045029 | 71 | 176 | 0.0 | 0.0 | 0.00 | 0.00 | 0.00 | 52 | 1009.1 |
| 20260506044929 | 71 | 176 | 0.0 | 0.0 | 0.00 | 0.00 | 0.00 | 51 | 1009.1 |
| 20260506044903 | 71 | 176 | 0.0 | 0.0 | 0.00 | 0.00 | 0.00 | 52 | 1009.1 |
| 20260506044848 | 71 | 176 | 0.0 | 0.0 | 0.00 | 0.00 | 0.00 | 52 | 1009.2 |
| 20260506044530 | 71 | 176 | 0.0 | 0.0 | 0.00 | 0.00 | 0.00 | 52 | 1009.1 |
| 20260506044429 | 71 | 176 | 0.0 | 0.0 | 0.00 | 0.00 | 0.00 | 51 | 1009.2 |
| 20260506044402 | 71 | 176 | 0.0 | 0.0 | 0.00 | 0.00 | 0.00 | 51 | 1009.2 |
| 20260506044350 | 71 | 176 | 0.0 | 0.0 | 0.00 | 0.00 | 0.00 | 51 | 1009.2 |
| 20260506044029 | 71 | 176 | 0.0 | 0.0 | 0.00 | 0.00 | 0.00 | 51 | 1009.1 |
| 20260506043931 | 71 | 176 | 0.0 | 0.0 | 0.00 | 0.00 | 0.00 | 51 | 1009.1 |
| 20260506043908 | 71 | 176 | 0.0 | 0.0 | 0.00 | 0.00 | 0.00 | 51 | 1009.1 |
| 20260506043729 | 72 | 176 | 0.0 | 0.0 | 0.00 | 0.00 | 0.00 | 51 | 1009.1 |
| 20260506043629 | 72 | 176 | 0.0 | 0.0 | 0.00 | 0.00 | 0.00 | 51 | 1009.1 |
| 20260506043530 | 72 | 176 | 0.0 | 0.0 | 0.00 | 0.00 | 0.00 | 51 | 1009.1 |
| 20260506043429 | 72 | 176 | 0.0 | 0.0 | 0.00 | 0.00 | 0.00 | 50 | 1009.1 |
| 20260506043338 | 72 | 176 | 0.0 | 0.0 | 0.00 | 0.00 | 0.00 | 50 | 1009.1 |
| 20260506043231 | 72 | 176 | 0.0 | 0.0 | 0.00 | 0.00 | 0.00 | 50 | 1009.1 |
| 20260506043130 | 72 | 176 | 0.0 | 0.0 | 0.00 | 0.00 | 0.00 | 50 | 1009.1 |
| 20260506043030 | 72 | 176 | 0.0 | 0.0 | 0.00 | 0.00 | 0.00 | 50 | 1009.0 |
| 20260506042930 | 72 | 176 | 0.0 | 0.0 | 0.00 | 0.00 | 0.00 | 49 | 1009.1 |
| 20260506042857 | 72 | 176 | 0.0 | 0.0 | 0.00 | 0.00 | 0.00 | 49 | 1009.0 |
| 20260506042830 | 72 | 176 | 0.0 | 0.0 | 0.00 | 0.00 | 0.00 | 49 | 1009.0 |
| 20260506042819 | 72 | 176 | 0.0 | 0.0 | 0.00 | 0.00 | 0.00 | 49 | 1009.1 |
| 20260506042808 | 73 | 176 | 0.0 | 0.0 | 0.00 | 0.00 | 0.00 | 49 | 1009.0 |
| 20260506042220 | 73 | 176 | 0.0 | 1.0 | 0.00 | 0.00 | 0.00 | 49 | 1009.0 |
| 20260506042120 | 73 | 176 | 0.0 | 1.0 | 0.00 | 0.00 | 0.00 | 48 | 1009.0 |
| 20260506042004 | 73 | 176 | 0.0 | 1.0 | 0.00 | 0.00 | 0.00 | 48 | 1009.0 |
| 20260506041905 | 73 | 176 | 0.0 | 1.0 | 0.00 | 0.00 | 0.00 | 48 | 1009.0 |
| 20260506041803 | 73 | 176 | 0.0 | 1.0 | 0.00 | 0.00 | 0.00 | 48 | 1009.0 |
| 20260506041735 | 73 | 176 | 0.0 | 1.0 | 0.00 | 0.00 | 0.00 | 48 | 1009.0 |
| 20260506041723 | 73 | 176 | 0.0 | 1.0 | 0.00 | 0.00 | 0.00 | 48 | 1009.0 |
| 20260506041406 | 73 | 176 | 0.0 | 1.0 | 0.00 | 0.00 | 0.00 | 48 | 1009.0 |
| 20260506041302 | 73 | 185 | 0.0 | 1.0 | 0.00 | 0.00 | 0.00 | 48 | 1009.0 |
| 20260506041204 | 73 | 174 | 0.0 | 1.0 | 0.00 | 0.00 | 0.00 | 48 | 1009.0 |
| 20260506041102 | 73 | 174 | 0.0 | 1.0 | 0.00 | 0.00 | 0.00 | 48 | 1009.0 |
| 20260506041003 | 74 | 174 | 0.0 | 1.0 | 0.00 | 0.00 | 0.00 | 48 | 1009.0 |
| 20260506040925 | 74 | 174 | 0.0 | 1.0 | 0.00 | 0.00 | 0.00 | 48 | 1009.0 |
| 20260506040859 | 74 | 174 | 0.0 | 1.0 | 0.00 | 0.00 | 0.00 | 47 | 1008.9 |
| 20260506040849 | 74 | 173 | 0.0 | 1.0 | 0.00 | 0.00 | 0.00 | 47 | 1009.0 |
| 20260506040501 | 74 | 170 | 0.0 | 1.0 | 0.00 | 0.00 | 0.00 | 47 | 1008.9 |
| 20260506040403 | 74 | 171 | 0.0 | 1.0 | 0.00 | 0.00 | 0.00 | 47 | 1008.9 |
| 20260506040302 | 74 | 168 | 0.0 | 1.0 | 0.00 | 0.00 | 0.00 | 47 | 1008.9 |
| 20260506040204 | 74 | 168 | 0.0 | 1.0 | 0.00 | 0.00 | 0.00 | 47 | 1008.9 |
| 20260506040101 | 74 | 167 | 0.0 | 1.0 | 0.00 | 0.00 | 0.00 | 47 | 1008.9 |
| 20260506040004 | 74 | 165 | 0.0 | 1.0 | 0.00 | 0.00 | 0.00 | 48 | 1008.9 |
| 20260506035902 | 74 | 165 | 0.0 | 1.0 | 0.00 | 0.00 | 0.00 | 47 | 1008.9 |
| 20260506035834 | 74 | 165 | 0.0 | 1.0 | 0.00 | 0.00 | 0.00 | 48 | 1008.9 |
| 20260506035822 | 74 | 165 | 0.0 | 1.0 | 0.00 | 0.00 | 0.00 | 48 | 1008.9 |
| 20260506035501 | 74 | 165 | 0.0 | 1.0 | 0.00 | 0.00 | 0.00 | 46 | 1008.8 |
| 20260506035404 | 75 | 177 | 0.0 | 1.0 | 0.00 | 0.00 | 0.00 | 46 | 1008.8 |
| 20260506035306 | 75 | 176 | 0.0 | 1.0 | 0.00 | 0.00 | 0.00 | 46 | 1008.8 |
| 20260506035204 | 75 | 176 | 0.0 | 1.0 | 0.00 | 0.00 | 0.00 | 46 | 1008.8 |
| 20260506035103 | 75 | 171 | 0.0 | 1.0 | 0.00 | 0.00 | 0.00 | 46 | 1008.8 |
| 20260506035003 | 75 | 158 | 0.0 | 1.0 | 0.00 | 0.00 | 0.00 | 46 | 1008.8 |
| 20260506034902 | 75 | 158 | 0.0 | 1.0 | 0.00 | 0.00 | 0.00 | 45 | 1008.7 |
| 20260506034804 | 75 | 158 | 0.0 | 1.0 | 0.00 | 0.00 | 0.00 | 45 | 1008.7 |
| 20260506034704 | 75 | 158 | 0.0 | 1.0 | 0.00 | 0.00 | 0.00 | 45 | 1008.8 |
| 20260506034603 | 75 | 174 | 0.0 | 1.0 | 0.00 | 0.00 | 0.00 | 46 | 1008.7 |
| 20260506034504 | 75 | 174 | 0.0 | 1.0 | 0.00 | 0.00 | 0.00 | 46 | 1008.7 |
| 20260506034402 | 76 | 174 | 0.0 | 1.0 | 0.00 | 0.00 | 0.00 | 46 | 1008.7 |
| 20260506034302 | 76 | 174 | 0.0 | 1.0 | 0.00 | 0.00 | 0.00 | 46 | 1008.8 |
| 20260506034203 | 76 | 174 | 0.0 | 1.0 | 0.00 | 0.00 | 0.00 | 46 | 1008.7 |
| 20260506034102 | 76 | 172 | 0.0 | 1.0 | 0.00 | 0.00 | 0.00 | 46 | 1008.7 |
| 20260506034004 | 76 | 172 | 0.0 | 1.0 | 0.00 | 0.00 | 0.00 | 47 | 1008.7 |
| 20260506033926 | 76 | 172 | 0.0 | 1.0 | 0.00 | 0.00 | 0.00 | 46 | 1008.7 |
| 20260506033902 | 76 | 171 | 0.0 | 1.0 | 0.00 | 0.00 | 0.00 | 47 | 1008.7 |
| 20260506033851 | 76 | 169 | 0.0 | 1.0 | 0.00 | 0.00 | 0.00 | 46 | 1008.7 |
| 20260506033501 | 77 | 168 | 0.0 | 1.0 | 0.00 | 0.00 | 0.00 | 46 | 1008.7 |
| 20260506033403 | 77 | 168 | 0.0 | 1.0 | 0.00 | 0.00 | 0.00 | 45 | 1008.7 |
| 20260506033334 | 77 | 167 | 0.0 | 1.0 | 0.00 | 0.00 | 0.00 | 46 | 1008.7 |
| 20260506033322 | 77 | 166 | 0.0 | 1.0 | 0.00 | 0.00 | 0.00 | 46 | 1008.7 |
| 20260506033040 | 77 | 166 | 0.0 | 1.0 | 0.00 | 0.00 | 0.00 | 46 | 1008.6 |
| 20260506033030 | 77 | 166 | 0.0 | 1.0 | 0.00 | 0.00 | 0.00 | 46 | 1008.6 |
| 20260506032702 | 77 | 166 | 0.0 | 1.0 | 0.00 | 0.00 | 0.00 | 46 | 1008.6 |
| 20260506032604 | 78 | 166 | 0.0 | 1.0 | 0.00 | 0.00 | 0.00 | 45 | 1008.6 |
| 20260506032527 | 78 | 166 | 0.0 | 2.0 | 0.00 | 0.00 | 0.00 | 45 | 1008.6 |
| 20260506032512 | 78 | 165 | 0.0 | 2.0 | 0.00 | 0.00 | 0.00 | 45 | 1008.6 |
| 20260506032501 | 78 | 165 | 0.0 | 2.0 | 0.00 | 0.00 | 0.00 | 45 | 1008.6 |
| 20260506032220 | 78 | 165 | 1.0 | 2.0 | 0.00 | 0.00 | 0.00 | 44 | 1008.5 |
| 20260506031950 | 78 | 161 | 1.0 | 3.0 | 0.00 | 0.00 | 0.00 | 42 | 1008.5 |
| 20260506031924 | 78 | 159 | 1.0 | 3.0 | 0.00 | 0.00 | 0.00 | 42 | 1008.5 |
| 20260506031914 | 78 | 159 | 1.0 | 3.0 | 0.00 | 0.00 | 0.00 | 42 | 1008.5 |
| 20260506031902 | 78 | 159 | 1.0 | 3.0 | 0.00 | 0.00 | 0.00 | 42 | 1008.5 |
| 20260506031850 | 78 | 155 | 1.0 | 3.0 | 0.00 | 0.00 | 0.00 | 42 | 1008.5 |
| 20260506031607 | 79 | 156 | 1.0 | 3.0 | 0.00 | 0.00 | 0.00 | 42 | 1008.5 |
| 20260506031553 | 79 | 153 | 1.0 | 3.0 | 0.00 | 0.00 | 0.00 | 42 | 1008.5 |
| 20260506031324 | 79 | 142 | 0.0 | 3.0 | 0.00 | 0.00 | 0.00 | 42 | 1008.5 |
| 20260506031042 | 79 | 140 | 0.0 | 3.0 | 0.00 | 0.00 | 0.00 | 42 | 1008.4 |
| 20260506031031 | 79 | 140 | 1.0 | 3.0 | 0.00 | 0.00 | 0.00 | 41 | 1008.5 |
| 20260506030304 | 80 | 130 | 2.0 | 5.0 | 0.00 | 0.00 | 0.00 | 41 | 1008.5 |
| 20260506030250 | 80 | 138 | 2.0 | 5.0 | 0.00 | 0.00 | 0.00 | 41 | 1008.4 |
| 20260506025930 | 80 | 141 | 1.0 | 5.0 | 0.00 | 0.00 | 0.00 | 40 | 1008.4 |
| 20260506025829 | 80 | 153 | 0.0 | 5.0 | 0.00 | 0.00 | 0.00 | 41 | 1008.5 |
| 20260506025726 | 80 | 160 | 0.0 | 5.0 | 0.00 | 0.00 | 0.00 | 41 | 1008.5 |
| 20260506025627 | 80 | 172 | 1.0 | 5.0 | 0.00 | 0.00 | 0.00 | 40 | 1008.4 |
| 20260506025521 | 80 | 175 | 1.0 | 5.0 | 0.00 | 0.00 | 0.00 | 41 | 1008.5 |
| 20260506025420 | 80 | 150 | 2.0 | 5.0 | 0.00 | 0.00 | 0.00 | 40 | 1008.5 |
| 20260506025356 | 80 | 163 | 2.0 | 5.0 | 0.00 | 0.00 | 0.00 | 40 | 1008.5 |
| 20260506025334 | 80 | 188 | 2.0 | 4.0 | 0.00 | 0.00 | 0.00 | 40 | 1008.5 |
| 20260506025012 | 80 | 179 | 2.0 | 4.0 | 0.00 | 0.00 | 0.00 | 40 | 1008.5 |
| 20260506024911 | 80 | 170 | 2.0 | 5.0 | 0.00 | 0.00 | 0.00 | 40 | 1008.5 |
| 20260506024811 | 80 | 147 | 2.0 | 5.0 | 0.00 | 0.00 | 0.00 | 40 | 1008.5 |
| 20260506024711 | 80 | 152 | 2.0 | 5.0 | 0.00 | 0.00 | 0.00 | 40 | 1008.5 |
| 20260506024613 | 81 | 145 | 2.0 | 5.0 | 0.00 | 0.00 | 0.00 | 39 | 1008.5 |
| 20260506024510 | 81 | 157 | 2.0 | 5.0 | 0.00 | 0.00 | 0.00 | 39 | 1008.5 |
| 20260506024411 | 81 | 167 | 2.0 | 5.0 | 0.00 | 0.00 | 0.00 | 39 | 1008.5 |
| 20260506024308 | 81 | 144 | 2.0 | 5.0 | 0.00 | 0.00 | 0.00 | 39 | 1008.5 |
| 20260506024206 | 81 | 145 | 2.0 | 5.0 | 0.00 | 0.00 | 0.00 | 39 | 1008.4 |
| 20260506024106 | 81 | 142 | 3.0 | 5.0 | 0.00 | 0.00 | 0.00 | 39 | 1008.5 |
| 20260506024006 | 81 | 105 | 3.0 | 5.0 | 0.00 | 0.00 | 0.00 | 38 | 1008.5 |
| 20260506023905 | 81 | 128 | 2.0 | 4.0 | 0.00 | 0.00 | 0.00 | 39 | 1008.4 |
| 20260506023804 | 81 | 133 | 2.0 | 3.0 | 0.00 | 0.00 | 0.00 | 38 | 1008.5 |
| 20260506023703 | 81 | 150 | 1.0 | 3.0 | 0.00 | 0.00 | 0.00 | 39 | 1008.5 |
| 20260506023602 | 81 | 87 | 2.0 | 3.0 | 0.00 | 0.00 | 0.00 | 39 | 1008.5 |
| 20260506023502 | 81 | 133 | 2.0 | 3.0 | 0.00 | 0.00 | 0.00 | 38 | 1008.5 |
| 20260506023412 | 81 | 124 | 2.0 | 3.0 | 0.00 | 0.00 | 0.00 | 38 | 1008.5 |
| 20260506023326 | 81 | 141 | 2.0 | 3.0 | 0.00 | 0.00 | 0.00 | 38 | 1008.5 |
| 20260506023303 | 81 | 153 | 1.0 | 3.0 | 0.00 | 0.00 | 0.00 | 38 | 1008.5 |
| 20260506023249 | 82 | 130 | 0.0 | 3.0 | 0.00 | 0.00 | 0.00 | 38 | 1008.5 |
| 20260506023236 | 82 | 150 | 0.0 | 3.0 | 0.00 | 0.00 | 0.00 | 38 | 1008.4 |
| 20260506022703 | 82 | 144 | 0.0 | 6.0 | 0.00 | 0.00 | 0.00 | 38 | 1008.5 |
| 20260506022605 | 82 | 140 | 1.0 | 6.0 | 0.00 | 0.00 | 0.00 | 38 | 1008.5 |
| 20260506022501 | 82 | 139 | 1.0 | 6.0 | 0.00 | 0.00 | 0.00 | 38 | 1008.5 |
| 20260506022403 | 82 | 142 | 1.0 | 6.0 | 0.00 | 0.00 | 0.00 | 38 | 1008.4 |
| 20260506022305 | 82 | 77 | 1.0 | 6.0 | 0.00 | 0.00 | 0.00 | 37 | 1008.5 |
| 20260506022203 | 82 | 150 | 1.0 | 6.0 | 0.00 | 0.00 | 0.00 | 38 | 1008.5 |
| 20260506022100 | 82 | 78 | 2.0 | 6.0 | 0.00 | 0.00 | 0.00 | 38 | 1008.4 |
| 20260506022003 | 82 | 86 | 2.0 | 6.0 | 0.00 | 0.00 | 0.00 | 37 | 1008.5 |
| 20260506021900 | 82 | 110 | 1.0 | 6.0 | 0.00 | 0.00 | 0.00 | 37 | 1008.4 |
| 20260506021804 | 82 | 107 | 2.0 | 6.0 | 0.00 | 0.00 | 0.00 | 37 | 1008.5 |
| 20260506021700 | 82 | 123 | 2.0 | 6.0 | 0.00 | 0.00 | 0.00 | 37 | 1008.5 |
| 20260506021603 | 82 | 95 | 2.0 | 6.0 | 0.00 | 0.00 | 0.00 | 37 | 1008.5 |
| 20260506021501 | 82 | 105 | 1.0 | 6.0 | 0.00 | 0.00 | 0.00 | 37 | 1008.5 |
| 20260506021430 | 82 | 141 | 2.0 | 6.0 | 0.00 | 0.00 | 0.00 | 37 | 1008.5 |
| 20260506021416 | 82 | 134 | 3.0 | 6.0 | 0.00 | 0.00 | 0.00 | 37 | 1008.4 |
| 20260506021355 | 82 | 157 | 3.0 | 6.0 | 0.00 | 0.00 | 0.00 | 37 | 1008.5 |
| 20260506021340 | 83 | 146 | 2.0 | 6.0 | 0.00 | 0.00 | 0.00 | 36 | 1008.4 |
| 20260506020802 | 83 | 116 | 3.0 | 6.0 | 0.00 | 0.00 | 0.00 | 36 | 1008.5 |
| 20260506020701 | 83 | 140 | 3.0 | 6.0 | 0.00 | 0.00 | 0.00 | 36 | 1008.4 |
| 20260506020604 | 83 | 153 | 3.0 | 6.0 | 0.00 | 0.00 | 0.00 | 36 | 1008.5 |
| 20260506020501 | 83 | 102 | 3.0 | 6.0 | 0.00 | 0.00 | 0.00 | 36 | 1008.5 |
| 20260506020431 | 83 | 149 | 3.0 | 6.0 | 0.00 | 0.00 | 0.00 | 36 | 1008.5 |
| 20260506020415 | 83 | 126 | 2.0 | 6.0 | 0.00 | 0.00 | 0.00 | 36 | 1008.4 |
| 20260506020353 | 83 | 120 | 3.0 | 6.0 | 0.00 | 0.00 | 0.00 | 36 | 1008.4 |
| 20260506020006 | 83 | 121 | 2.0 | 7.0 | 0.00 | 0.00 | 0.00 | 35 | 1008.5 |
| 20260506015900 | 83 | 140 | 2.0 | 7.0 | 0.00 | 0.00 | 0.00 | 36 | 1008.5 |
| 20260506015806 | 83 | 152 | 2.0 | 7.0 | 0.00 | 0.00 | 0.00 | 35 | 1008.4 |
| 20260506015702 | 83 | 150 | 2.0 | 7.0 | 0.00 | 0.00 | 0.00 | 35 | 1008.3 |
| 20260506015605 | 83 | 124 | 3.0 | 7.0 | 0.00 | 0.00 | 0.00 | 36 | 1008.4 |
| 20260506015505 | 83 | 125 | 2.0 | 7.0 | 0.00 | 0.00 | 0.00 | 36 | 1008.4 |
| 20260506015450 | 83 | 54 | 2.0 | 7.0 | 0.00 | 0.00 | 0.00 | 36 | 1008.4 |
| 20260506015438 | 83 | 137 | 2.0 | 7.0 | 0.00 | 0.00 | 0.00 | 35 | 1008.4 |
| 20260506015101 | 83 | 144 | 2.0 | 7.0 | 0.00 | 0.00 | 0.00 | 35 | 1008.4 |
| 20260506015004 | 83 | 136 | 4.0 | 7.0 | 0.00 | 0.00 | 0.00 | 35 | 1008.3 |
| 20260506014901 | 83 | 109 | 3.0 | 7.0 | 0.00 | 0.00 | 0.00 | 35 | 1008.3 |
| 20260506014804 | 83 | 131 | 2.0 | 7.0 | 0.00 | 0.00 | 0.00 | 35 | 1008.4 |
| 20260506014712 | 84 | 109 | 2.0 | 6.0 | 0.00 | 0.00 | 0.00 | 36 | 1008.3 |
| 20260506014659 | 84 | 127 | 2.0 | 6.0 | 0.00 | 0.00 | 0.00 | 35 | 1008.3 |
| 20260506014648 | 84 | 88 | 3.0 | 6.0 | 0.00 | 0.00 | 0.00 | 35 | 1008.3 |
| 20260506014637 | 84 | 102 | 2.0 | 6.0 | 0.00 | 0.00 | 0.00 | 35 | 1008.3 |
| 20260506014355 | 84 | 95 | 3.0 | 6.0 | 0.00 | 0.00 | 0.00 | 35 | 1008.3 |
| 20260506014339 | 84 | 104 | 2.0 | 7.0 | 0.00 | 0.00 | 0.00 | 34 | 1008.3 |
| 20260506013803 | 84 | 132 | 2.0 | 7.0 | 0.00 | 0.00 | 0.00 | 35 | 1008.3 |
| 20260506013701 | 84 | 143 | 2.0 | 7.0 | 0.00 | 0.00 | 0.00 | 34 | 1008.3 |
| 20260506013607 | 84 | 150 | 3.0 | 7.0 | 0.00 | 0.00 | 0.00 | 34 | 1008.3 |
| 20260506013501 | 84 | 188 | 3.0 | 7.0 | 0.00 | 0.00 | 0.00 | 34 | 1008.3 |
| 20260506013406 | 84 | 109 | 2.0 | 7.0 | 0.00 | 0.00 | 0.00 | 34 | 1008.4 |
| 20260506013302 | 85 | 104 | 2.0 | 7.0 | 0.00 | 0.00 | 0.00 | 33 | 1008.3 |
| 20260506013228 | 85 | 141 | 2.0 | 7.0 | 0.00 | 0.00 | 0.00 | 33 | 1008.3 |
| 20260506013101 | 85 | 130 | 2.0 | 5.0 | 0.00 | 0.00 | 0.00 | 32 | 1008.3 |
| 20260506013037 | 85 | 140 | 2.0 | 4.0 | 0.00 | 0.00 | 0.00 | 32 | 1008.3 |
| 20260506013025 | 85 | 146 | 1.0 | 4.0 | 0.00 | 0.00 | 0.00 | 32 | 1008.4 |
| 20260506012701 | 85 | 0 | 1.0 | 4.0 | 0.00 | 0.00 | 0.00 | 31 | 1008.4 |
| 20260506012604 | 85 | 18 | 2.0 | 4.0 | 0.00 | 0.00 | 0.00 | 29 | 1008.4 |
| 20260506012500 | 85 | 26 | 2.0 | 4.0 | 0.00 | 0.00 | 0.00 | 29 | 1008.3 |
| 20260506012404 | 85 | 34 | 2.0 | 4.0 | 0.00 | 0.00 | 0.00 | 29 | 1008.4 |
| 20260506012301 | 85 | 0 | 2.0 | 4.0 | 0.00 | 0.00 | 0.00 | 29 | 1008.4 |
| 20260506012204 | 85 | 9 | 2.0 | 4.0 | 0.00 | 0.00 | 0.00 | 30 | 1008.3 |
| 20260506012102 | 85 | 38 | 2.0 | 4.0 | 0.00 | 0.00 | 0.00 | 30 | 1008.3 |
| 20260506012005 | 85 | 62 | 1.0 | 4.0 | 0.00 | 0.00 | 0.00 | 29 | 1008.3 |
| 20260506011902 | 85 | 81 | 1.0 | 4.0 | 0.00 | 0.00 | 0.00 | 30 | 1008.3 |
| 20260506011807 | 85 | 5 | 2.0 | 4.0 | 0.00 | 0.00 | 0.00 | 30 | 1008.3 |
| 20260506011701 | 85 | 67 | 2.0 | 4.0 | 0.00 | 0.00 | 0.00 | 29 | 1008.3 |
| 20260506011639 | 85 | 19 | 2.0 | 5.0 | 0.00 | 0.00 | 0.00 | 29 | 1008.3 |
| 20260506011625 | 85 | 5 | 2.0 | 7.0 | 0.00 | 0.00 | 0.00 | 29 | 1008.3 |
| 20260506011301 | 85 | 18 | 2.0 | 7.0 | 0.00 | 0.00 | 0.00 | 30 | 1008.3 |
| 20260506011206 | 85 | 19 | 2.0 | 7.0 | 0.00 | 0.00 | 0.00 | 30 | 1008.3 |
| 20260506011132 | 85 | 333 | 2.0 | 7.0 | 0.00 | 0.00 | 0.00 | 30 | 1008.3 |
| 20260506011121 | 85 | 264 | 2.0 | 7.0 | 0.00 | 0.00 | 0.00 | 30 | 1008.3 |
| 20260506010804 | 85 | 242 | 2.0 | 7.0 | 0.00 | 0.00 | 0.00 | 30 | 1008.2 |
| 20260506010700 | 85 | 277 | 2.0 | 7.0 | 0.00 | 0.00 | 0.00 | 31 | 1008.2 |
| 20260506010637 | 85 | 303 | 2.0 | 7.0 | 0.00 | 0.00 | 0.00 | 30 | 1008.2 |
| 20260506010625 | 85 | 254 | 3.0 | 6.0 | 0.00 | 0.00 | 0.00 | 30 | 1008.1 |
| 20260506010301 | 85 | 343 | 3.0 | 6.0 | 0.00 | 0.00 | 0.00 | 30 | 1008.1 |
| 20260506010222 | 85 | 280 | 3.0 | 6.0 | 0.00 | 0.00 | 0.00 | 29 | 1008.1 |
| 20260506010135 | 85 | 299 | 3.0 | 6.0 | 0.00 | 0.00 | 0.00 | 30 | 1008.1 |
| 20260506010121 | 86 | 333 | 2.0 | 6.0 | 0.00 | 0.00 | 0.00 | 30 | 1008.2 |
| 20260506005803 | 86 | 271 | 2.0 | 3.0 | 0.00 | 0.00 | 0.00 | 30 | 1008.1 |
| 20260506005702 | 86 | 347 | 2.0 | 5.0 | 0.00 | 0.00 | 0.00 | 30 | 1008.1 |
| 20260506005605 | 86 | 277 | 2.0 | 6.0 | 0.00 | 0.00 | 0.00 | 30 | 1008.2 |
| 20260506005501 | 86 | 289 | 2.0 | 6.0 | 0.00 | 0.00 | 0.00 | 29 | 1008.1 |
| 20260506005403 | 85 | 240 | 1.0 | 6.0 | 0.00 | 0.00 | 0.00 | 30 | 1008.2 |
| 20260506005301 | 85 | 98 | 2.0 | 6.0 | 0.00 | 0.00 | 0.00 | 29 | 1008.2 |
| 20260506005205 | 85 | 257 | 1.0 | 6.0 | 0.00 | 0.00 | 0.00 | 29 | 1008.2 |
| 20260506005135 | 85 | 292 | 1.0 | 6.0 | 0.00 | 0.00 | 0.00 | 30 | 1008.2 |
| 20260506005125 | 85 | 298 | 2.0 | 6.0 | 0.00 | 0.00 | 0.00 | 30 | 1008.2 |
| 20260506004808 | 85 | 346 | 3.0 | 6.0 | 0.00 | 0.00 | 0.00 | 30 | 1008.2 |
| 20260506004701 | 86 | 320 | 2.0 | 6.0 | 0.00 | 0.00 | 0.00 | 30 | 1008.2 |
| 20260506004604 | 86 | 331 | 1.0 | 4.0 | 0.00 | 0.00 | 0.00 | 31 | 1008.2 |
| 20260506004533 | 86 | 282 | 1.0 | 4.0 | 0.00 | 0.00 | 0.00 | 31 | 1008.2 |
| 20260506004521 | 86 | 302 | 2.0 | 4.0 | 0.00 | 0.00 | 0.00 | 30 | 1008.2 |
| 20260506004210 | 86 | 32 | 2.0 | 4.0 | 0.00 | 0.00 | 0.00 | 31 | 1008.2 |
| 20260506004101 | 86 | 11 | 1.0 | 4.0 | 0.00 | 0.00 | 0.00 | 30 | 1008.2 |
| 20260506004002 | 86 | 0 | 1.0 | 4.0 | 0.00 | 0.00 | 0.00 | 30 | 1008.2 |
| 20260506003902 | 86 | 47 | 2.0 | 4.0 | 0.00 | 0.00 | 0.00 | 30 | 1008.2 |
| 20260506003801 | 86 | 88 | 2.0 | 4.0 | 0.00 | 0.00 | 0.00 | 30 | 1008.2 |
| 20260506003711 | 86 | 83 | 3.0 | 4.0 | 0.00 | 0.00 | 0.00 | 30 | 1008.2 |
| 20260506003603 | 86 | 24 | 2.0 | 4.0 | 0.00 | 0.00 | 0.00 | 30 | 1008.2 |
| 20260506003533 | 86 | 65 | 1.0 | 4.0 | 0.00 | 0.00 | 0.00 | 30 | 1008.2 |
| 20260506003522 | 86 | 333 | 0.0 | 3.0 | 0.00 | 0.00 | 0.00 | 30 | 1008.2 |
| 20260506003215 | 86 | 204 | 1.0 | 3.0 | 0.00 | 0.00 | 0.00 | 31 | 1008.2 |
| 20260506003101 | 86 | 250 | 0.0 | 3.0 | 0.00 | 0.00 | 0.00 | 30 | 1008.2 |
| 20260506003004 | 85 | 275 | 1.0 | 4.0 | 0.00 | 0.00 | 0.00 | 31 | 1008.2 |
| 20260506002948 | 85 | 320 | 1.0 | 4.0 | 0.00 | 0.00 | 0.00 | 30 | 1008.2 |
| 20260506002934 | 85 | 315 | 1.0 | 4.0 | 0.00 | 0.00 | 0.00 | 31 | 1008.2 |
| 20260506002922 | 85 | 19 | 2.0 | 4.0 | 0.00 | 0.00 | 0.00 | 30 | 1008.1 |
| 20260506002900 | 85 | 23 | 2.0 | 4.0 | 0.00 | 0.00 | 0.00 | 30 | 1008.2 |
| 20260506002848 | 85 | 20 | 2.0 | 4.0 | 0.00 | 0.00 | 0.00 | 30 | 1008.2 |
| 20260506002617 | 85 | 5 | 2.0 | 4.0 | 0.00 | 0.00 | 0.00 | 30 | 1008.2 |
| 20260506002332 | 85 | 308 | 1.0 | 4.0 | 0.00 | 0.00 | 0.00 | 30 | 1008.2 |
| 20260506002103 | 85 | 300 | 1.0 | 5.0 | 0.00 | 0.00 | 0.00 | 30 | 1008.3 |
| 20260506002050 | 85 | 294 | 1.0 | 5.0 | 0.00 | 0.00 | 0.00 | 30 | 1008.2 |
| 20260506001501 | 85 | 281 | 2.0 | 5.0 | 0.00 | 0.00 | 0.00 | 30 | 1008.3 |
| 20260506001359 | 85 | 282 | 2.0 | 6.0 | 0.00 | 0.00 | 0.00 | 30 | 1008.3 |
| 20260506001257 | 85 | 322 | 2.0 | 6.0 | 0.00 | 0.00 | 0.00 | 30 | 1008.3 |
| 20260506001211 | 85 | 297 | 3.0 | 6.0 | 0.00 | 0.00 | 0.00 | 31 | 1008.3 |
| 20260506001056 | 85 | 288 | 2.0 | 6.0 | 0.00 | 0.00 | 0.00 | 31 | 1008.3 |
| 20260506000956 | 85 | 333 | 2.0 | 6.0 | 0.00 | 0.00 | 0.00 | 31 | 1008.3 |
| 20260506000855 | 85 | 328 | 2.0 | 6.0 | 0.00 | 0.00 | 0.00 | 31 | 1008.3 |
| 20260506000837 | 85 | 284 | 2.0 | 6.0 | 0.00 | 0.00 | 0.00 | 32 | 1008.3 |
| 20260506000824 | 85 | 317 | 2.0 | 6.0 | 0.00 | 0.00 | 0.00 | 31 | 1008.3 |
| 20260506000451 | 85 | 254 | 2.0 | 6.0 | 0.00 | 0.00 | 0.00 | 30 | 1008.4 |
| 20260506000354 | 85 | 236 | 1.0 | 5.0 | 0.00 | 0.00 | 0.00 | 30 | 1008.4 |
| 20260506000254 | 85 | 298 | 1.0 | 3.0 | 0.00 | 0.00 | 0.00 | 31 | 1008.4 |
| 20260506000205 | 85 | 10 | 2.0 | 4.0 | 0.00 | 0.00 | 0.00 | 31 | 1008.4 |
| 20260506000147 | 85 | 30 | 2.0 | 4.0 | 0.00 | 0.00 | 0.00 | 31 | 1008.4 |
| 20260506000136 | 85 | 15 | 1.0 | 4.0 | 0.00 | 0.00 | 0.00 | 33 | 1008.5 |
| 20260505235748 | 85 | 87 | 1.0 | 4.0 | 0.00 | 0.00 | 0.00 | 31 | 1008.4 |
| 20260505235646 | 85 | 102 | 1.0 | 4.0 | 0.00 | 0.00 | 0.00 | 32 | 1008.5 |
| 20260505235625 | 85 | 352 | 2.0 | 4.0 | 0.00 | 0.00 | 0.00 | 32 | 1008.5 |
| 20260505235608 | 85 | 314 | 2.0 | 4.0 | 0.00 | 0.00 | 0.00 | 33 | 1008.5 |
| 20260505235243 | 85 | 98 | 3.0 | 4.0 | 0.00 | 0.00 | 0.00 | 31 | 1008.5 |
| 20260505235145 | 85 | 74 | 2.0 | 0.0 | 0.00 | 0.00 | 0.00 | 32 | 1008.5 |
| 20260505234302 | 85 | 332 | 3.0 | 9.0 | 0.00 | 0.00 | 0.00 | 32 | 1008.6 |
| 20260505234225 | 84 | 68 | 2.0 | 8.0 | 0.00 | 0.00 | 0.00 | 32 | 1008.6 |
| 20260505234211 | 84 | 59 | 2.0 | 8.0 | 0.00 | 0.00 | 0.00 | 32 | 1008.6 |
| 20260505234200 | 84 | 325 | 3.0 | 8.0 | 0.00 | 0.00 | 0.00 | 32 | 1008.7 |
| 20260505234133 | 84 | 305 | 3.0 | 8.0 | 0.00 | 0.00 | 0.00 | 31 | 1008.6 |
| 20260505234122 | 84 | 5 | 4.0 | 8.0 | 0.00 | 0.00 | 0.00 | 31 | 1008.6 |
| 20260505233849 | 84 | 5 | 2.0 | 6.0 | 0.00 | 0.00 | 0.00 | 31 | 1008.7 |
| 20260505233255 | 85 | 344 | 3.0 | 6.0 | 0.00 | 0.00 | 0.00 | 32 | 1008.7 |
| 20260505233156 | 85 | 19 | 4.0 | 6.0 | 0.00 | 0.00 | 0.00 | 32 | 1008.7 |
| 20260505233121 | 85 | 348 | 3.0 | 6.0 | 0.00 | 0.00 | 0.00 | 32 | 1008.7 |
| 20260505233037 | 85 | 316 | 3.0 | 6.0 | 0.00 | 0.00 | 0.00 | 32 | 1008.7 |
| 20260505233013 | 85 | 291 | 3.0 | 6.0 | 0.00 | 0.00 | 0.00 | 34 | 1008.7 |
| 20260505232715 | 85 | 271 | 2.0 | 8.0 | 0.00 | 0.00 | 0.00 | 33 | 1008.7 |
| 20260505232703 | 85 | 315 | 3.0 | 8.0 | 0.00 | 0.00 | 0.00 | 33 | 1008.7 |
| 20260505232651 | 85 | 5 | 3.0 | 8.0 | 0.00 | 0.00 | 0.00 | 32 | 1008.7 |
| 20260505232627 | 85 | 5 | 2.0 | 8.0 | 0.00 | 0.00 | 0.00 | 32 | 1008.7 |
| 20260505232046 | 85 | 277 | 3.0 | 8.0 | 0.00 | 0.00 | 0.00 | 34 | 1008.8 |
| 20260505232010 | 85 | 259 | 3.0 | 8.0 | 0.00 | 0.00 | 0.00 | 34 | 1008.7 |
| 20260505231946 | 84 | 9 | 2.0 | 8.0 | 0.00 | 0.00 | 0.00 | 35 | 1008.8 |
| 20260505231935 | 84 | 321 | 2.0 | 7.0 | 0.00 | 0.00 | 0.00 | 33 | 1008.7 |
| 20260505231700 | 84 | 317 | 3.0 | 7.0 | 0.00 | 0.00 | 0.00 | 34 | 1008.8 |
| 20260505231647 | 84 | 345 | 2.0 | 7.0 | 0.00 | 0.00 | 0.00 | 34 | 1008.8 |
| 20260505231621 | 84 | 327 | 2.0 | 7.0 | 0.00 | 0.00 | 0.00 | 34 | 1008.8 |
| 20260505231121 | 84 | 340 | 3.0 | 7.0 | 0.00 | 0.00 | 0.00 | 34 | 1008.9 |
| 20260505231110 | 84 | 11 | 3.0 | 7.0 | 0.00 | 0.00 | 0.00 | 33 | 1008.9 |
| 20260505230739 | 84 | 337 | 3.0 | 7.0 | 0.00 | 0.00 | 0.00 | 34 | 1008.9 |
| 20260505230638 | 84 | 352 | 2.0 | 7.0 | 0.00 | 0.00 | 0.00 | 34 | 1008.9 |
| 20260505230541 | 84 | 340 | 1.0 | 5.0 | 0.00 | 0.00 | 0.00 | 34 | 1008.9 |
| 20260505230524 | 84 | 53 | 2.0 | 4.0 | 0.00 | 0.00 | 0.00 | 34 | 1008.9 |
| 20260505230501 | 84 | 352 | 2.0 | 4.0 | 0.00 | 0.00 | 0.00 | 33 | 1008.9 |
| 20260505230135 | 84 | 242 | 1.0 | 9.0 | 0.00 | 0.00 | 0.00 | 33 | 1009.0 |
| 20260505230033 | 84 | 166 | 1.0 | 9.0 | 0.00 | 0.00 | 0.00 | 33 | 1009.0 |
| 20260505225930 | 84 | 340 | 2.0 | 9.0 | 0.00 | 0.00 | 0.00 | 35 | 1009.0 |
| 20260505225829 | 84 | 0 | 2.0 | 9.0 | 0.00 | 0.00 | 0.00 | 34 | 1009.1 |
| 20260505225730 | 84 | 285 | 2.0 | 9.0 | 0.00 | 0.00 | 0.00 | 34 | 1009.0 |
| 20260505225629 | 84 | 294 | 2.0 | 9.0 | 0.00 | 0.00 | 0.00 | 34 | 1009.1 |
| 20260505225530 | 84 | 53 | 3.0 | 9.0 | 0.00 | 0.00 | 0.00 | 35 | 1009.1 |
| 20260505225431 | 84 | 352 | 4.0 | 9.0 | 0.00 | 0.00 | 0.00 | 34 | 1009.1 |
| 20260505225336 | 84 | 5 | 4.0 | 9.0 | 0.00 | 0.00 | 0.00 | 34 | 1009.1 |
| 20260505225229 | 84 | 25 | 4.0 | 8.0 | 0.00 | 0.00 | 0.00 | 34 | 1009.1 |
| 20260505225133 | 84 | 281 | 4.0 | 8.0 | 0.00 | 0.00 | 0.00 | 33 | 1009.1 |
| 20260505225029 | 84 | 13 | 3.0 | 8.0 | 0.00 | 0.00 | 0.00 | 33 | 1009.1 |
| 20260505224931 | 84 | 10 | 2.0 | 7.0 | 0.00 | 0.00 | 0.00 | 34 | 1009.2 |
| 20260505224829 | 84 | 351 | 2.0 | 6.0 | 0.00 | 0.00 | 0.00 | 35 | 1009.1 |
| 20260505224732 | 84 | 96 | 2.0 | 6.0 | 0.00 | 0.00 | 0.00 | 35 | 1009.1 |
| 20260505224630 | 84 | 265 | 2.0 | 6.0 | 0.00 | 0.00 | 0.00 | 36 | 1009.1 |
| 20260505224614 | 84 | 348 | 3.0 | 6.0 | 0.00 | 0.00 | 0.00 | 35 | 1009.1 |
| 20260505224603 | 84 | 308 | 3.0 | 6.0 | 0.00 | 0.00 | 0.00 | 34 | 1009.1 |
| 20260505224226 | 84 | 245 | 3.0 | 6.0 | 0.00 | 0.00 | 0.00 | 34 | 1009.1 |
| 20260505224128 | 84 | 313 | 2.0 | 6.0 | 0.00 | 0.00 | 0.00 | 35 | 1009.2 |
| 20260505224025 | 84 | 290 | 1.0 | 6.0 | 0.00 | 0.00 | 0.00 | 34 | 1009.1 |